GFSFLT1_prec_cthk_000.txt.gz
RH
34 30 22 20 19 14 14 14 14 15 16 15 15 15 13 12 12 10 10 12 15 19 22 21 17 17 18 21 22 21 20 19 19
41 39 31 24 17 15 15 16 16 15 15 15 16 17 18 19 19 20 18 17 17 18 23 23 22 19 16 16 18 19 19 18 19
39 42 38 31 26 25 24 24 23 22 23 23 23 24 25 26 26 26 26 26 24 25 25 30 28 26 26 25 26 25 25 24 24
31 32 31 31 31 32 32 32 32 32 32 32 32 32 31 30 30 30 30 30 30 29 29 30 33 33 33 30 27 28 27 27 27
24 23 24 26 28 30 32 34 36 37 36 36 36 36 35 35 35 36 37 37 38 37 36 35 37 37 35 33 29 26 24 24 25
26 26 27 27 28 27 28 29 30 32 34 36 37 38 38 37 36 36 36 37 37 36 35 38 37 36 36 36 35 35 33 32 30
32 33 34 34 33 34 36 37 37 36 35 34 33 31 30 28 30 29 31 31 32 32 38 38 40 41 40 40 40 41 42 42 42
36 37 39 38 39 40 41 39 39 38 35 33 30 28 26 27 27 28 29 30 31 37 38 42 44 45 44 42 41 37 37 38 43
40 40 42 43 43 43 43 42 41 38 33 30 30 29 29 29 31 33 33 31 33 35 38 36 38 40 43 46 43 47 48 47 37
44 45 45 46 46 44 42 40 36 31 28 28 30 31 31 30 31 30 28 25 24 25 26 29 30 31 38 42 47 51 54 54 47
44 43 48 48 44 42 38 30 26 27 30 31 30 26 23 21 20 20 20 20 23 27 29 30 31 31 39 49 49 48 48 49 54
44 50 50 47 40 33 30 30 30 29 25 20 16 15 15 16 16 18 21 23 24 26 28 29 32 32 31 35 38 41 43 41 45
51 52 42 35 33 33 33 30 25 19 16 15 16 17 17 18 20 20 22 23 24 25 26 28 27 28 29 27 26 25 26 30 30
47 39 36 35 35 33 28 21 16 15 17 18 18 17 18 18 16 18 19 18 18 20 22 22 22 22 22 23 22 19 17 20 23
39 37 38 38 32 25 20 16 17 16 17 18 16 15 16 14 17 13 13 12 13 13 13 12 12 12 12 11 11 10 14 19 20
40 40 37 31 25 19 17 16 16 17 17 16 15 14 14 15 17 14 14 14 14 13 13 12 12 12 12 12 12 13 15 18 19
39 37 32 27 22 19 17 19 19 19 18 17 17 16 16 18 16 18 16 17 16 15 14 14 13 12 12 13 11 10 10 12 15
37 33 28 24 22 22 23 21 20 20 20 19 18 20 21 19 19 17 18 16 16 15 14 12 12 12 12 10 9 10 12 14 17
35 31 27 26 26 24 23 23 22 22 21 20 19 19 21 22 20 18 16 17 15 13 12 11 11 10 9 9 11 14 14 16 17
33 32 32 31 27 25 25 24 24 23 22 21 20 21 21 21 21 19 17 14 11 10 10 10 9 9 11 13 16 16 16 18 20

GFSFLT1_prec_cthk_003.txt.gz
RH
41 39 30 23 18 15 15 16 16 16 16 16 16 16 16 16 17 17 17 16 15 18 20 22 22 22 21 23 26 25 23 23 21
42 42 35 32 27 23 21 20 19 18 18 19 19 21 22 23 24 25 26 25 23 22 21 26 25 25 25 24 24 24 25 24 23
38 40 39 34 31 31 31 31 31 31 31 30 30 31 31 32 32 32 32 32 31 30 29 28 31 32 32 29 27 26 27 26 25
29 27 26 25 25 27 29 32 34 36 37 37 37 37 37 37 36 36 36 35 35 35 34 33 33 34 33 33 33 33 31 29 28
30 30 28 28 28 29 30 30 31 33 35 36 38 38 38 38 37 37 38 39 39 38 40 40 40 40 42 39 37 36 34 33 31
29 30 32 34 36 37 38 38 38 40 39 37 36 35 33 32 30 31 32 34 34 34 36 36 38 38 37 36 35 36 38 38 38
32 33 34 37 39 41 42 44 43 41 39 38 35 31 28 27 27 26 27 28 28 28 31 36 42 42 42 46 48 47 41 40 45
37 37 38 41 43 47 45 42 40 39 35 32 30 28 28 28 29 30 31 31 30 29 32 37 41 43 43 45 45 46 53 55 55
39 40 42 43 43 45 45 42 41 39 36 32 29 29 30 31 31 31 31 31 29 25 26 27 29 29 31 35 36 40 52 57 56
43 44 45 43 47 47 46 43 37 30 27 28 28 27 25 23 22 22 22 23 23 22 22 24 27 28 31 33 41 49 50 48 47
46 46 44 45 48 47 40 32 30 32 31 27 21 18 15 14 15 16 18 20 21 22 25 26 27 29 31 31 35 41 45 45 44
48 47 47 50 44 34 33 34 34 30 22 16 14 14 16 17 18 20 21 22 23 24 24 26 27 28 29 30 33 34 37 38 40
51 51 46 37 35 36 36 32 26 18 16 16 14 15 17 19 21 21 21 21 22 23 24 25 26 27 28 28 26 25 24 26 28
52 42 36 36 37 36 31 25 18 16 16 15 14 17 18 20 18 18 19 19 18 18 18 18 18 17 17 17 17 17 19 23 23
35 37 39 39 36 32 24 17 15 15 15 15 16 18 19 19 17 19 15 15 14 15 15 14 14 14 13 13 13 13 13 13 16
36 40 39 37 31 21 16 16 17 17 20 20 19 18 18 16 18 19 17 17 16 17 16 15 15 15 14 14 13 13 12 16 14
41 42 38 30 23 19 18 18 21 23 23 22 20 18 18 19 21 19 19 18 18 17 16 16 15 15 14 13 12 10 9 12 16
46 42 33 26 22 21 19 23 25 24 23 21 21 21 21 20 20 20 20 19 18 17 16 14 12 11 9 8 8 8 9 13 16
43 36 32 29 26 23 25 26 25 23 22 22 22 23 23 22 21 20 19 18 16 13 11 10 10 10 9 10 10 10 11 16 18
40 36 34 32 30 31 29 26 25 24 24 24 24 24 23 24 24 21 17 14 12 11 10 10 9 9 10 11 13 13 13 17 17

GFSFLT1_prec_cthk_006.txt.gz
RH
42 41 34 30 23 20 18 16 16 16 17 17 17 17 17 17 18 19 19 19 19 17 19 21 23 22 22 19 21 24 24 31 32
41 40 36 34 32 30 30 30 29 29 28 27 26 26 26 27 28 29 30 29 27 26 24 24 29 28 25 25 25 25 25 25 24
38 36 33 32 29 29 29 30 31 33 34 36 37 38 38 38 37 36 35 34 33 32 29 28 27 27 30 30 29 28 27 26 27
35 33 31 30 29 29 30 31 31 31 32 33 34 35 36 36 37 38 39 39 37 35 35 36 36 35 35 35 34 34 33 32 29
34 34 33 33 34 36 38 38 38 37 36 37 37 38 37 36 35 34 34 35 36 37 39 39 38 36 35 36 37 39 40 37 35
34 34 34 35 37 38 39 42 43 42 40 39 38 37 35 31 29 30 29 29 30 32 32 37 38 44 46 47 42 39 39 36 36
34 35 36 38 40 43 44 43 43 41 39 37 34 32 29 28 28 28 29 31 31 31 31 33 37 39 42 45 46 51 54 50 54
37 38 40 43 44 48 44 40 41 40 39 36 34 30 28 27 28 30 31 33 34 33 31 29 31 33 36 38 42 44 43 48 55
43 42 45 45 48 48 42 43 42 39 34 30 29 29 29 26 24 23 22 23 24 25 24 26 26 26 28 30 31 38 39 43 46
47 47 48 49 47 45 44 44 36 30 30 31 31 27 21 18 16 15 15 17 19 21 23 24 25 26 31 32 33 33 35 38 44
52 52 50 49 47 45 39 32 32 34 32 28 22 16 15 15 15 16 19 21 23 23 24 26 27 28 29 31 32 32 34 37 40
52 51 50 51 43 35 33 36 34 30 24 19 17 17 17 17 18 20 21 23 25 25 26 27 27 28 28 29 30 31 31 34 36
54 54 52 40 36 37 36 33 29 23 19 17 15 14 14 16 19 21 22 23 22 22 22 23 23 23 23 24 25 25 24 24 23
54 50 36 33 38 37 34 30 22 16 14 14 14 15 17 20 22 21 19 19 17 16 17 17 17 17 16 16 16 16 16 15 16
43 36 33 36 37 34 28 20 15 14 17 17 18 20 20 21 21 18 19 18 18 18 18 18 17 17 17 16 16 15 15 15 19
37 37 37 40 36 28 20 14 16 18 19 21 22 21 21 20 18 20 23 21 20 19 19 18 18 17 16 16 15 15 14 13 20
41 44 44 39 33 24 17 17 20 21 22 23 23 21 20 21 22 21 22 21 21 21 21 20 19 17 15 13 11 10 9 10 14
46 46 43 40 33 25 21 22 23 23 23 24 23 23 23 23 22 23 24 23 23 23 22 19 16 13 12 11 10 9 9 10 17
47 46 46 41 34 29 27 27 25 25 26 26 26 26 25 24 23 23 24 25 23 20 17 14 12 11 11 11 11 11 12 17 18
51 52 50 44 38 35 32 31 30 28 28 28 27 26 26 27 27 26 25 23 20 16 14 12 12 12 12 12 14 15 17 18 23

GFSFLT1_prec_cthk_009.txt.gz
RH
40 37 34 32 28 26 25 24 23 22 21 20 19 22 23 19 20 20 22 22 22 21 19 19 21 24 24 21 18 18 21 23 29
44 37 35 34 32 30 30 29 29 29 30 31 32 32 34 32 33 33 33 33 32 31 29 27 24 28 28 26 26 25 23 25 24
39 35 30 30 27 26 27 28 30 30 31 31 31 31 32 33 33 33 33 33 33 34 35 35 33 32 30 30 30 29 28 26 26
39 34 34 34 32 33 36 37 38 37 37 37 35 36 34 36 36 34 33 33 32 32 32 34 38 36 35 35 33 33 34 33 33
38 37 36 34 34 37 37 38 42 42 42 42 39 39 36 35 35 31 30 29 29 31 34 37 36 45 48 40 40 38 35 34 33
37 37 35 36 37 39 40 41 42 41 40 39 38 36 34 29 28 27 27 27 29 30 32 34 36 37 40 47 54 56 57 48 43
37 35 36 40 40 41 43 44 42 39 39 37 36 36 32 28 28 27 27 27 29 31 32 32 31 33 34 37 41 43 45 50 58
40 40 41 43 43 46 47 44 41 40 37 35 31 29 28 29 30 28 25 24 24 26 27 28 27 27 28 31 30 35 39 43 42
45 47 47 46 45 47 47 45 43 38 32 31 30 30 30 27 22 18 17 16 17 22 24 24 23 25 28 29 28 28 30 33 38
50 51 50 49 46 46 48 42 35 32 32 32 29 25 21 18 16 15 16 17 18 20 22 23 25 27 29 32 33 33 33 33 34
54 54 54 50 48 49 41 33 33 34 31 27 23 20 18 17 16 16 18 20 21 22 24 25 26 27 29 30 31 32 33 34 34
57 54 52 52 49 38 35 37 36 33 27 23 20 17 14 15 16 17 19 21 23 24 25 26 27 27 27 27 28 29 29 30 30
57 54 53 47 37 34 36 35 34 28 23 19 15 13 15 17 18 21 22 23 22 21 21 20 19 19 19 20 20 20 21 21 21
54 56 45 37 36 36 33 30 26 21 18 15 14 17 18 19 22 23 23 21 19 18 18 18 19 19 18 18 17 17 17 17 17
56 45 38 38 40 34 29 25 22 19 16 15 18 20 19 21 24 25 22 20 22 22 20 20 19 19 18 18 18 18 17 17 16
45 40 41 44 41 36 31 26 23 17 16 18 21 21 21 22 23 23 23 22 23 23 21 21 21 21 21 20 19 18 16 14 12
41 44 46 44 42 39 36 32 25 19 19 21 23 24 24 25 24 24 24 23 23 24 24 24 23 23 22 20 18 15 13 12 12
45 48 48 47 46 45 42 35 28 22 21 23 25 25 26 25 25 25 25 25 25 25 26 26 25 23 20 17 14 13 12 12 16
49 51 54 53 51 50 47 41 32 24 24 25 26 27 27 27 26 25 25 25 26 26 26 25 22 19 17 15 14 14 13 16 21
52 55 56 55 54 50 48 46 34 27 24 26 27 28 28 28 28 27 26 27 26 27 25 23 20 18 16 15 14 14 15 21 23

GFSFLT1_prec_cthk_012.txt.gz
RH
36 34 31 29 26 26 25 25 25 25 25 25 25 28 30 25 29 29 29 26 25 24 23 23 25 27 27 25 21 22 22 22 23
40 33 34 33 31 30 28 27 27 28 27 28 28 28 30 31 37 36 36 36 34 32 32 31 30 29 29 31 28 26 24 21 22
40 34 30 29 26 26 28 30 33 33 33 34 33 32 32 34 35 35 35 33 32 31 32 35 34 32 33 33 33 34 32 30 29
45 39 34 34 32 32 34 36 37 37 38 38 38 37 37 37 38 36 38 35 33 33 35 38 39 44 49 42 36 33 34 35 35
40 38 36 35 34 35 36 38 40 42 42 39 38 37 36 36 33 31 29 28 26 26 29 31 34 36 39 47 56 55 54 50 44
39 38 36 36 37 38 40 40 43 43 39 37 37 37 35 31 30 28 27 27 27 29 30 31 32 33 34 35 40 46 53 60 65
39 38 37 38 41 42 43 43 44 43 39 38 34 31 30 28 28 27 29 29 27 27 27 28 29 28 29 29 29 31 36 42 45
40 41 42 45 44 45 46 45 44 44 38 33 31 30 30 30 31 29 27 22 19 22 24 22 23 25 24 23 23 24 26 29 33
44 48 48 49 48 49 48 46 44 41 31 31 32 30 28 25 22 20 17 17 18 20 21 21 24 23 23 25 24 23 24 25 27
55 52 50 50 52 52 48 46 37 32 31 31 29 26 23 21 20 20 17 17 18 19 20 22 22 23 25 27 27 29 30 31 32
56 56 55 52 53 53 45 36 34 34 33 30 27 23 21 19 17 16 17 19 20 21 22 23 23 24 25 26 27 28 28 28 30
63 64 59 54 55 44 36 34 34 33 29 27 24 21 19 16 15 18 20 21 22 23 24 23 23 24 24 23 23 23 23 24 25
69 66 58 57 44 37 35 35 31 26 21 23 21 19 17 16 18 21 21 21 21 20 21 20 18 18 18 17 17 17 18 18 17
70 66 61 45 37 37 37 33 27 21 20 20 20 19 18 20 21 22 22 23 23 22 21 20 20 19 19 19 19 19 18 18 17
69 66 51 40 39 41 36 33 29 24 22 21 21 19 20 21 23 24 24 22 22 22 23 23 22 19 19 19 20 20 20 20 20
68 58 44 42 44 41 40 38 33 29 26 24 24 22 20 22 26 24 23 24 23 22 22 21 21 21 22 22 22 22 22 21 20
67 50 46 46 46 48 48 46 42 36 29 24 24 25 24 25 25 25 25 26 25 25 24 23 22 23 23 23 22 22 20 19 17
56 49 50 49 53 54 52 49 47 42 34 27 25 24 24 25 26 29 29 29 28 26 24 23 25 26 24 23 22 20 18 17 16
49 50 53 54 55 56 55 53 49 44 36 29 25 22 23 25 26 28 29 29 28 26 25 27 27 25 23 21 19 18 17 17 18
48 51 54 56 56 58 58 57 54 49 40 30 24 24 25 26 28 28 28 28 27 28 32 31 28 27 25 23 23 20 18 23 26

GFSFLT1_prec_cthk_015.txt.gz
RH
30 30 29 27 24 23 23 23 23 24 25 25 25 25 26 28 37 33 35 33 30 29 28 27 26 27 27 27 26 21 22 22 23
34 29 31 32 29 28 28 28 28 29 30 31 30 31 31 32 38 38 36 36 32 30 29 31 33 30 30 30 30 31 29 24 20
37 31 28 28 27 26 28 30 32 33 34 34 33 33 33 34 36 38 37 34 33 32 33 34 36 36 36 37 35 32 34 34 32
43 39 34 31 30 31 35 37 38 38 39 38 37 35 34 35 37 36 37 32 29 28 28 31 33 37 39 47 54 58 50 35 34
45 39 36 34 32 34 36 38 38 38 38 37 35 32 33 33 33 32 29 27 26 26 28 28 29 30 31 31 34 43 51 62 68
42 38 36 34 35 38 39 40 41 40 37 37 33 31 31 31 30 30 28 27 26 28 28 27 28 28 28 28 28 30 36 43 51
47 41 37 36 38 40 41 42 43 41 40 37 31 29 29 29 28 28 28 28 29 28 28 22 23 24 25 24 24 23 23 24 27
47 45 42 43 43 44 45 46 44 43 39 32 30 28 29 29 29 28 24 21 26 26 23 22 22 22 23 24 21 21 22 22 23
55 54 53 51 48 47 48 48 46 40 32 30 29 27 27 27 26 25 21 19 19 18 19 19 18 20 22 22 21 22 22 24 25
57 58 54 53 51 50 50 50 40 33 31 29 29 28 25 25 25 24 20 18 16 18 19 19 20 21 23 24 24 24 25 26 27
58 60 58 55 55 53 51 40 35 32 30 28 27 25 25 23 23 24 19 16 18 20 20 22 22 22 22 23 23 24 24 24 25
56 64 65 60 60 57 43 37 34 30 28 26 24 22 21 23 23 21 20 18 20 21 21 20 19 19 18 17 17 17 17 17 18
62 64 67 65 62 49 39 36 33 29 25 22 21 20 21 22 22 21 20 19 20 20 19 18 18 18 18 18 18 18 18 18 18
66 69 66 66 54 47 40 36 32 29 26 23 21 19 22 25 24 25 23 20 22 22 20 19 20 21 21 21 20 19 19 18 19
66 69 66 59 51 48 41 36 36 35 31 26 24 23 25 26 26 27 26 23 20 22 21 21 21 22 21 20 20 19 18 19 20
64 67 63 50 51 49 43 43 44 43 40 34 30 27 24 25 27 28 25 24 23 24 24 23 23 22 21 20 19 20 21 22 22
59 59 50 46 51 50 51 49 48 47 44 39 33 30 28 28 26 27 26 24 24 24 24 23 23 22 21 20 20 22 22 22 21
60 55 45 46 51 54 54 54 54 52 51 45 36 30 28 26 26 25 24 25 25 25 25 24 23 22 21 21 22 23 22 21 20
66 56 43 49 53 54 57 58 58 57 54 49 43 36 32 31 28 26 27 27 27 28 28 26 24 24 25 25 25 23 22 20 18
68 57 45 50 54 56 57 57 58 60 58 53 46 39 37 34 32 30 30 29 29 28 29 31 31 31 28 26 26 28 27 27 28

GFSFLT1_prec_cthk_018.txt.gz
RH
25 26 27 26 24 23 21 21 22 23 24 24 25 26 27 29 33 36 37 34 36 35 34 34 35 33 31 31 31 29 24 23 23
28 25 26 28 28 28 29 29 30 29 30 30 31 30 31 33 37 40 35 34 32 30 30 32 32 33 32 32 33 30 28 28 27
36 30 27 25 25 27 29 30 32 34 34 34 33 33 32 34 36 40 35 35 32 29 32 34 35 36 39 40 45 51 46 38 33
41 38 35 31 29 30 32 35 35 36 36 35 33 32 32 31 30 31 31 30 26 25 26 25 28 30 31 33 37 46 49 60 61
44 40 36 34 33 34 35 36 36 37 35 34 33 31 30 28 28 27 28 28 26 26 25 27 28 28 27 27 29 29 32 42 48
44 41 37 35 33 35 37 37 39 38 36 36 32 29 28 26 27 26 26 26 27 28 27 28 28 29 26 25 26 27 27 27 29
46 45 43 39 37 37 38 39 39 40 39 37 31 28 28 26 27 28 27 25 23 29 27 26 24 22 23 21 20 20 20 21 21
46 49 45 45 45 44 42 40 41 42 38 32 29 28 26 25 25 26 24 24 30 29 27 22 19 21 20 18 18 18 18 19 20
42 44 51 56 53 51 49 46 45 40 34 31 28 27 25 26 25 23 23 22 23 22 20 17 19 19 18 19 19 20 21 21 22
51 50 50 53 53 52 50 49 43 35 33 31 28 25 24 24 25 24 23 22 22 20 18 19 20 21 20 21 21 21 22 22 22
55 53 54 50 53 55 52 47 40 35 32 29 27 24 23 22 22 22 22 22 22 20 20 19 20 20 19 19 18 16 15 15 15
58 58 57 57 55 58 54 46 42 36 31 28 25 23 22 21 21 20 22 22 22 21 20 18 17 18 18 17 16 16 16 16 16
59 59 60 61 60 58 50 47 44 38 31 27 24 22 22 23 22 22 24 25 24 23 23 21 18 19 20 20 19 18 18 18 19
58 59 62 62 61 52 49 45 45 41 34 30 28 26 24 24 24 25 25 25 25 25 23 23 21 20 21 21 20 19 20 20 19
58 58 60 61 55 49 48 44 46 46 42 35 34 32 30 29 27 26 26 25 25 25 24 24 22 23 23 22 21 20 20 19 18
61 59 60 57 45 45 45 44 47 49 46 41 38 37 35 33 31 30 29 26 26 25 25 23 22 23 22 21 20 19 19 18 17
63 64 64 56 44 41 41 44 47 52 51 49 46 43 40 38 35 30 27 26 26 25 25 24 24 23 22 21 20 20 18 18 19
68 68 67 56 46 42 43 47 50 53 54 54 52 47 43 39 36 35 32 31 30 28 27 27 26 24 23 22 21 22 23 24 24
68 69 66 60 50 46 47 48 52 55 56 55 53 48 45 41 39 37 33 30 30 30 29 29 27 26 26 26 26 25 25 24 28
71 73 68 63 51 53 52 51 53 55 56 56 53 50 47 43 40 37 35 34 33 31 30 29 29 27 26 25 24 25 25 25 28

GFSFLT1_prec_cthk_021.txt.gz
RH
22 22 22 23 23 23 21 20 21 23 26 27 28 28 30 33 33 35 37 32 34 34 32 34 32 31 30 30 29 28 27 23 22
27 23 20 21 24 26 27 28 29 30 28 28 29 30 31 33 34 36 34 32 31 29 29 32 38 40 44 44 42 40 36 31 29
31 29 27 25 24 25 27 30 30 30 32 33 33 32 34 36 34 32 33 32 30 26 31 32 32 32 33 36 38 43 51 58 51
34 32 30 30 30 30 30 30 31 34 34 33 33 33 33 32 30 28 27 27 27 25 26 27 27 27 29 29 29 31 41 47 54
42 40 35 32 30 32 33 34 35 36 35 34 32 32 31 29 28 28 27 27 26 25 27 27 31 33 30 27 26 26 26 28 33
47 43 40 39 37 37 36 36 36 38 38 37 34 30 29 28 26 27 26 28 27 29 31 30 31 31 28 22 21 22 23 24 25
41 44 45 42 42 43 43 40 39 38 38 36 31 30 28 27 26 26 25 25 30 30 29 29 27 27 23 20 20 18 17 17 18
45 43 40 40 46 48 47 45 46 44 38 33 31 29 28 27 26 25 24 25 30 31 30 26 25 24 19 19 19 18 18 18 20
49 52 50 43 44 45 49 51 49 45 38 33 31 30 28 26 25 25 23 23 26 25 25 24 24 21 20 21 21 20 20 20 20
52 54 53 48 48 47 46 51 50 41 36 33 29 27 26 26 25 23 23 22 23 23 25 24 23 21 20 20 20 20 19 17 16
58 55 62 54 50 49 49 50 45 41 37 35 31 27 25 25 23 23 22 21 21 21 23 23 21 20 17 16 18 17 17 17 15
58 55 57 54 50 52 53 47 43 40 37 35 33 28 26 25 24 23 23 22 21 23 23 23 23 22 21 21 20 19 20 19 18
61 60 61 56 54 55 54 45 43 40 37 36 36 33 28 26 25 25 25 24 24 25 25 24 23 23 22 22 22 21 21 21 20
62 63 62 57 55 55 47 44 42 41 39 37 40 39 32 30 30 29 29 27 26 25 24 24 24 24 25 25 24 22 22 22 21
60 60 58 59 58 56 46 43 40 40 40 37 39 41 39 34 34 33 32 33 31 29 26 25 25 25 25 24 22 21 21 21 19
58 58 58 61 61 55 49 45 42 40 39 40 41 44 45 43 43 41 40 37 34 31 28 26 25 25 25 23 22 22 22 21 20
61 61 60 61 65 55 51 49 46 42 42 44 45 46 47 46 45 43 42 39 36 33 32 30 29 27 26 25 25 23 22 20 20
59 61 62 64 66 55 52 52 50 47 46 47 48 48 47 46 44 43 41 39 36 34 33 30 28 27 27 26 25 24 23 24 28
61 62 66 65 64 59 55 53 52 52 52 52 52 52 50 48 45 43 40 39 37 34 32 30 30 29 29 27 25 24 23 24 30
63 65 68 63 66 66 57 54 54 53 54 57 58 56 52 49 47 46 45 44 40 36 34 32 30 28 25 24 25 26 26 29 30

GFSFLT1_prec_cthk_024.txt.gz
RH
21 20 20 22 23 23 23 22 22 23 24 27 28 29 31 33 32 32 31 32 32 32 30 30 30 31 31 30 31 30 28 25 22
25 24 22 20 21 25 26 27 28 29 29 28 28 29 32 33 33 33 33 34 33 30 30 36 38 38 42 45 47 44 47 41 35
28 27 27 27 28 27 28 29 29 30 29 30 30 31 32 34 34 34 34 31 29 24 29 30 33 33 36 38 37 39 46 53 55
37 34 32 30 31 33 33 32 32 33 32 32 32 32 32 32 32 32 32 30 29 26 25 26 30 33 32 32 32 32 33 42 49
41 41 38 37 37 37 36 35 35 35 35 35 34 33 32 31 30 30 30 29 28 28 28 31 33 35 35 31 29 29 28 28 31
40 40 42 42 42 43 42 42 41 39 38 37 35 32 31 30 29 29 28 28 31 32 34 33 34 31 29 26 25 23 21 22 22
49 42 38 39 41 45 46 48 46 44 42 39 33 31 30 30 29 28 28 31 31 32 30 32 31 31 27 24 22 18 19 19 18
51 50 47 46 44 40 42 45 49 49 45 39 35 34 32 30 30 28 27 32 33 31 31 26 27 26 25 24 22 19 20 21 20
54 56 49 49 49 44 43 44 44 46 43 39 35 33 29 27 27 27 28 28 28 27 25 25 25 26 25 24 21 19 20 21 21
54 55 55 53 52 54 45 45 48 45 41 38 32 31 29 27 25 26 26 25 25 25 24 24 24 24 24 22 18 17 16 16 17
51 54 61 61 53 53 49 48 49 44 40 38 33 31 31 30 27 26 26 25 25 24 24 24 22 22 22 20 19 19 18 19 19
51 51 55 58 57 56 54 51 47 43 40 38 34 32 32 34 32 29 27 26 25 25 25 25 25 24 23 23 23 22 22 22 22
54 51 54 61 62 58 56 52 46 41 39 37 34 35 34 35 37 33 29 28 28 27 27 25 24 24 24 24 24 24 24 24 24
58 57 59 61 61 59 58 55 47 45 40 38 35 34 33 34 39 39 34 31 31 30 31 31 30 29 27 25 25 25 24 24 24
59 59 59 59 58 58 59 53 50 49 46 42 37 34 34 36 40 43 43 42 42 39 37 35 33 31 28 28 27 25 24 24 23
57 58 61 63 61 62 59 52 53 51 48 46 41 38 37 39 42 44 45 46 46 43 40 38 34 32 30 30 29 28 27 25 27
58 55 59 61 61 62 61 54 53 52 51 49 46 44 42 41 42 42 44 44 44 42 40 37 35 33 31 30 29 27 25 24 25
62 62 58 60 64 64 62 53 54 55 54 52 50 48 47 48 48 47 46 45 43 42 40 37 34 31 30 28 27 26 26 25 28
62 59 59 61 63 64 63 58 58 57 56 54 55 54 53 52 50 49 47 45 45 44 42 40 37 34 32 31 28 27 26 27 29
68 68 65 66 66 63 61 64 60 58 57 56 58 58 59 58 55 52 51 50 49 48 45 42 38 33 31 28 27 26 25 28 31

GFSFLT1_prec_cthk_027.txt.gz
RH
19 19 19 20 21 22 22 23 22 23 24 24 28 30 30 29 29 29 31 31 35 31 29 31 40 43 39 38 36 34 31 28 24
24 24 23 22 21 22 24 26 27 27 28 29 29 28 30 31 33 33 33 34 35 29 27 34 37 38 44 49 49 50 53 53 45
30 29 28 28 29 29 30 29 30 30 30 30 30 31 32 33 34 34 35 34 31 28 26 26 31 35 37 39 40 42 46 55 59
33 35 34 34 33 34 33 34 33 33 33 32 32 33 34 34 33 33 33 32 31 29 28 28 31 31 31 33 34 35 35 42 47
34 35 38 39 40 44 42 40 40 38 36 35 33 33 33 32 32 31 32 31 30 29 30 37 40 36 34 31 30 31 30 29 29
42 40 36 37 40 42 43 45 46 44 42 42 39 35 33 32 32 31 31 31 34 40 37 39 39 35 31 27 26 26 25 24 22
44 46 46 42 42 42 41 43 45 47 48 46 40 35 33 32 31 30 29 34 38 39 39 39 35 32 27 25 24 23 22 21 19
48 49 50 50 47 48 48 43 43 44 43 42 41 38 36 33 30 28 32 34 35 36 35 32 30 28 27 27 26 25 24 23 19
48 49 54 56 52 50 49 51 45 45 45 40 38 36 31 29 27 25 26 28 29 27 27 27 27 26 26 27 26 24 23 21 18
49 50 52 55 54 57 56 50 48 46 42 39 36 33 31 28 28 29 27 26 27 27 26 26 26 24 24 22 21 21 21 19 17
52 54 53 52 54 60 58 51 51 51 42 38 36 33 31 30 29 31 31 29 28 28 27 26 25 24 24 22 22 22 21 21 21
53 56 54 55 56 60 60 55 57 52 43 39 36 33 31 30 31 31 33 33 32 29 27 27 26 24 24 24 24 24 24 24 24
60 59 56 60 58 60 62 60 60 52 46 44 40 38 35 32 30 31 32 35 36 33 29 29 29 30 30 30 30 30 28 26 25
63 62 59 59 62 65 62 59 58 51 48 47 45 43 39 35 33 33 34 36 39 40 40 37 36 37 36 35 34 31 29 28 28
58 61 61 63 64 63 61 60 59 51 50 50 47 44 42 40 39 38 37 38 41 43 42 41 40 39 38 36 34 32 31 30 31
58 61 59 60 62 63 62 61 58 50 51 50 48 47 46 44 44 45 43 42 42 41 41 40 40 39 37 35 33 30 29 29 30
53 57 58 60 60 59 58 58 55 51 49 48 48 48 48 47 48 48 47 48 48 46 44 42 41 39 38 35 33 31 28 26 27
57 58 60 65 65 63 58 60 58 52 50 50 50 51 50 50 52 51 50 51 49 47 46 44 43 42 40 39 37 34 31 29 31
68 66 66 70 67 66 63 61 59 55 53 54 54 53 53 55 54 54 54 53 51 50 50 49 47 44 41 39 36 33 30 28 33
70 72 73 73 73 71 74 66 60 61 59 58 56 55 54 56 58 57 57 55 55 56 55 51 46 42 41 39 34 30 27 26 26

GFSFLT1_prec_cthk_030.txt.gz
RH
21 19 18 17 18 20 22 22 22 24 24 23 25 27 29 30 29 30 31 33 36 31 30 37 39 43 43 44 47 44 37 32 28
25 25 25 24 24 22 22 24 27 28 29 29 29 29 30 31 32 33 33 33 32 29 30 34 36 36 40 45 45 49 51 56 56
30 30 30 30 29 29 30 30 30 31 32 32 32 32 32 34 35 35 34 34 32 30 28 28 36 36 37 36 35 38 44 51 57
31 34 36 36 36 37 37 39 37 36 34 33 33 33 34 34 34 33 33 32 31 29 29 30 36 35 33 33 33 32 32 38 47
36 36 34 37 41 43 44 41 41 41 40 39 38 36 34 32 31 31 32 32 31 33 39 43 43 41 36 34 33 30 27 27 29
40 40 41 39 41 42 41 40 42 43 44 45 42 37 34 33 32 31 31 33 39 43 40 42 38 37 32 31 27 26 25 25 25
44 44 44 46 46 46 46 45 43 42 42 42 41 39 37 35 33 31 31 37 39 37 38 35 33 34 26 24 24 24 24 24 24
48 47 47 48 49 49 47 49 49 47 44 42 38 35 34 31 28 28 34 34 33 31 31 30 28 25 26 25 24 24 25 25 25
49 49 50 48 50 53 53 53 49 48 48 42 37 35 32 29 28 27 29 32 33 27 24 24 26 25 25 25 23 21 22 23 22
48 51 53 53 50 51 53 54 56 53 50 45 38 34 30 28 27 27 28 29 32 30 27 26 27 27 25 24 23 22 22 21 21
45 49 53 55 52 50 53 55 55 52 52 48 40 37 33 30 28 27 27 27 29 32 30 28 29 28 26 25 24 24 25 25 25
44 47 52 54 53 53 57 58 57 57 56 48 42 40 37 36 34 32 29 28 29 30 32 32 32 29 28 28 29 29 29 29 29
44 47 52 56 57 56 59 59 59 60 56 47 44 42 41 40 37 35 33 31 31 32 32 35 37 38 36 35 36 37 36 35 33
47 50 57 61 59 60 63 63 61 60 54 47 46 44 44 41 38 37 36 36 36 35 34 35 37 39 40 40 39 38 37 36 35
52 57 61 60 59 62 65 65 60 59 54 48 45 45 43 40 41 41 41 40 40 41 40 37 37 37 37 37 36 35 34 33 32
56 58 66 62 62 62 64 64 60 57 52 48 46 44 42 41 41 42 44 45 45 44 43 42 41 40 40 39 37 35 34 33 32
65 60 57 62 62 62 61 62 60 56 50 48 47 44 44 44 44 44 47 48 49 48 47 47 45 45 44 44 42 40 39 37 33
68 65 60 57 59 61 63 67 67 62 53 48 46 46 46 47 48 47 48 50 50 51 50 49 48 49 49 45 42 39 38 36 34
68 70 70 71 67 69 70 71 71 65 59 52 51 50 50 50 52 50 50 51 51 51 51 51 51 51 50 46 44 42 39 35 32
71 81 82 81 82 82 80 80 76 74 67 64 58 55 55 56 56 53 54 54 54 55 54 53 53 52 50 48 46 44 40 35 31

GFSFLT1_prec_cthk_033.txt.gz
RH
21 19 19 18 21 23 24 23 22 24 24 25 25 26 27 28 29 29 31 33 37 29 35 38 42 43 44 44 47 45 41 37 33
24 23 23 23 24 25 24 25 26 28 28 29 29 29 29 30 31 31 32 32 32 28 31 31 36 38 43 45 46 46 48 54 57
29 30 30 30 31 31 32 32 31 31 31 31 31 32 32 32 33 33 33 32 31 30 29 29 35 36 37 40 40 39 41 46 55
30 31 34 35 37 39 40 40 38 37 35 34 34 33 32 31 30 31 31 31 30 30 31 36 36 34 33 33 33 33 34 36 43
36 37 37 36 39 42 44 41 41 40 39 39 38 36 34 32 32 32 31 30 33 42 44 43 40 37 35 34 31 28 28 28 29
40 39 38 42 46 47 45 43 40 38 39 40 40 37 35 34 33 32 30 35 41 42 42 40 37 34 31 28 25 24 23 23 25
41 42 41 42 48 48 47 46 46 46 44 40 37 33 31 31 29 27 33 38 36 33 31 29 28 26 25 23 23 24 23 23 23
41 42 44 43 45 47 51 50 48 48 47 45 39 34 32 29 27 29 34 34 32 31 29 27 26 23 23 23 23 23 23 24 23
46 44 44 45 45 44 48 53 52 52 51 48 43 38 32 28 27 27 33 33 30 28 26 25 24 23 22 23 22 22 23 22 22
49 46 45 47 48 48 47 48 51 51 53 52 45 39 34 30 28 28 27 28 27 25 25 27 26 26 24 25 25 24 24 24 24
49 48 45 47 48 49 49 49 51 52 52 53 47 42 37 34 32 32 31 30 28 28 27 28 28 29 28 26 28 27 26 26 26
48 47 45 46 48 49 51 52 53 54 54 55 49 43 39 37 36 35 33 33 32 31 30 29 30 30 33 34 34 34 34 34 34
47 46 45 46 49 50 53 55 56 56 56 55 48 42 40 39 38 36 34 34 34 32 32 32 31 32 33 35 38 39 40 39 38
46 45 45 48 52 54 55 56 57 58 60 56 47 43 41 39 38 35 33 33 34 34 35 35 36 35 35 35 35 36 36 37 36
54 48 50 51 55 60 59 57 58 61 61 55 48 44 41 40 38 35 35 35 36 37 38 40 40 39 39 38 37 37 36 35 34
60 58 58 57 62 67 61 60 62 62 59 55 48 44 41 39 38 36 36 39 40 39 41 42 43 43 43 42 41 40 38 38 36
63 65 65 66 70 66 67 65 64 63 60 56 50 43 43 41 39 39 39 41 43 43 43 43 44 44 43 42 42 43 41 40 38
61 64 71 74 75 69 65 63 62 63 63 61 56 49 44 43 43 43 43 44 46 46 46 47 47 47 47 45 44 44 44 43 42
59 60 66 75 80 76 68 67 63 65 67 66 62 56 54 51 50 49 48 48 50 50 50 50 50 50 50 48 47 46 46 45 44
56 61 62 65 73 79 78 78 79 83 79 76 73 67 64 63 60 58 57 55 55 54 53 52 53 53 52 50 49 49 49 48 45

GFSFLT1_prec_cthk_036.txt.gz
RH
18 18 18 19 22 24 23 22 22 23 24 25 26 27 26 26 29 31 31 37 32 30 36 39 43 46 48 48 50 51 46 42 33
22 21 20 22 25 25 23 23 25 26 27 28 28 28 28 33 33 34 34 34 30 28 30 35 39 41 45 48 49 49 52 53 57
26 27 27 27 28 28 30 30 30 30 30 30 30 31 31 35 35 32 34 30 29 29 28 31 35 37 37 40 42 42 43 48 53
30 30 31 32 33 34 38 38 37 36 35 34 34 33 33 36 33 32 33 30 30 30 37 38 37 37 35 33 32 34 35 36 41
34 35 35 35 37 38 41 38 37 37 37 38 38 36 34 33 32 32 33 29 37 46 44 42 39 36 34 33 31 29 28 28 28
35 36 36 39 42 44 42 40 40 39 37 36 36 34 33 33 33 34 31 44 43 44 40 39 35 32 29 25 22 22 22 23 24
41 37 37 40 44 48 46 45 44 44 44 43 39 34 31 31 31 33 33 33 33 33 32 30 29 26 22 21 21 22 23 22 23
44 41 38 40 42 46 45 47 50 49 48 47 43 37 34 34 34 35 37 35 32 28 24 24 25 22 21 21 21 20 21 22 22
49 48 44 45 45 47 44 45 48 52 52 51 49 43 38 37 37 35 34 32 30 28 24 23 24 23 23 22 22 21 22 23 23
51 53 50 48 45 46 44 47 47 47 48 50 49 48 41 37 39 39 34 36 33 30 26 25 26 26 25 24 24 23 24 25 25
50 52 53 52 50 44 45 47 47 48 49 50 51 47 43 40 39 41 34 33 29 30 30 29 29 28 29 28 28 30 29 30 31
52 52 50 53 52 49 47 45 46 49 51 53 54 49 45 40 36 37 41 32 30 30 30 29 29 30 30 30 31 32 34 34 34
56 55 52 53 52 48 48 46 46 50 53 55 56 52 47 40 37 36 35 34 32 30 30 30 30 30 31 32 32 33 34 35 35
58 60 56 52 50 47 48 49 51 53 56 57 58 55 47 40 38 37 35 33 31 32 32 32 33 33 34 35 36 36 36 35 34
56 55 57 59 51 46 48 54 55 56 58 58 59 55 46 41 39 38 35 33 32 32 34 35 35 36 36 37 38 38 38 37 36
52 57 59 59 57 55 55 59 60 62 61 62 61 55 48 43 40 38 35 35 34 34 35 37 38 38 38 38 38 38 37 36 38
53 53 57 62 61 63 64 67 67 62 65 68 62 55 50 45 43 41 38 36 36 37 38 39 41 41 41 41 41 42 40 39 39
47 49 53 60 66 66 69 72 71 72 70 66 64 56 53 51 50 47 43 42 42 42 42 42 44 45 45 45 45 45 44 42 42
45 47 55 55 60 63 70 78 80 77 71 69 66 63 58 55 54 53 52 51 51 51 50 50 49 49 49 49 48 48 47 46 45
45 51 59 63 62 63 66 74 81 81 78 75 76 78 75 71 70 68 66 62 61 58 57 59 59 56 54 53 52 51 51 50 49

GFSFLT1_prec_cthk_039.txt.gz
RH
16 16 18 22 26 26 24 21 21 21 24 25 26 26 26 29 32 35 32 35 30 29 34 35 41 48 47 49 52 52 55 49 37
20 20 20 20 23 23 22 22 23 24 26 27 28 28 29 34 35 37 37 29 27 27 30 36 38 41 45 47 47 48 50 52 60
23 24 26 27 26 26 26 27 28 28 28 28 28 28 29 39 36 33 32 27 27 28 30 31 34 36 39 41 43 43 41 44 49
28 28 28 28 29 31 32 33 32 33 33 33 33 33 33 36 34 33 35 29 27 30 40 39 37 34 34 34 33 33 34 35 40
32 32 32 32 34 36 38 35 34 33 32 32 32 33 34 37 33 33 31 30 41 45 42 38 34 33 30 30 25 25 25 26 27
31 33 34 34 36 39 38 37 38 38 37 36 34 31 32 32 32 33 33 39 41 37 36 34 32 28 22 23 20 20 20 20 22
38 35 33 34 37 40 41 40 41 42 42 42 40 38 36 34 32 34 33 34 33 33 31 28 26 24 20 20 19 19 20 20 20
43 40 35 34 38 40 40 41 41 42 45 45 44 43 41 40 37 37 37 34 30 26 24 21 21 21 21 20 19 18 18 19 19
48 46 45 43 43 43 42 42 43 41 43 45 46 45 45 45 46 41 38 36 32 30 28 23 23 23 22 22 22 21 20 21 20
52 50 47 48 49 47 44 42 43 44 45 46 47 45 45 44 46 44 39 39 38 35 27 25 25 25 25 25 24 24 23 23 23
55 57 53 48 50 50 49 46 42 42 44 46 48 49 47 47 46 45 37 38 37 33 27 26 26 25 24 25 26 27 28 28 29
55 58 56 54 54 53 51 51 46 42 43 45 48 50 52 49 47 46 41 35 33 31 29 28 27 27 28 27 27 28 30 30 31
59 59 57 56 57 58 55 52 48 44 44 45 47 52 54 52 49 46 42 39 34 32 30 29 29 29 29 30 31 31 32 32 32
60 61 62 62 63 62 61 55 50 47 46 47 49 52 55 53 51 46 41 40 38 34 30 29 30 31 31 32 33 34 34 35 35
53 58 62 61 60 62 64 63 57 52 49 50 51 53 56 55 51 46 42 39 36 33 31 31 31 32 33 34 34 35 36 36 36
48 52 54 56 58 56 60 60 58 59 57 55 56 56 59 56 52 47 44 41 37 33 33 32 33 34 36 37 37 37 38 37 37
49 47 51 54 55 59 60 61 61 62 65 65 65 62 61 62 55 50 46 44 44 40 37 36 38 39 40 41 41 41 42 41 41
48 49 50 53 56 56 60 64 63 64 69 74 72 70 67 63 56 53 50 48 48 47 44 43 45 46 47 48 48 46 46 46 44
45 50 50 52 53 54 52 59 69 72 74 79 78 78 75 71 63 58 54 54 55 53 53 53 53 54 53 54 54 56 53 51 49
36 45 48 49 52 56 59 62 63 69 73 76 79 84 83 80 74 69 68 70 70 68 68 68 64 62 60 59 62 60 59 56 53

GFSFLT1_prec_cthk_042.txt.gz
RH
15 19 22 26 26 24 21 18 18 20 22 23 24 26 29 29 37 36 28 26 24 29 37 39 38 41 45 48 48 52 49 49 44
18 18 20 24 24 24 21 21 22 23 23 24 25 27 31 31 37 31 30 26 25 29 30 34 38 40 42 42 44 47 48 50 55
21 22 23 25 27 26 25 27 27 28 27 28 27 28 33 33 32 28 27 25 25 26 28 29 31 32 36 40 42 42 41 40 41
25 25 26 26 26 27 28 29 29 29 30 30 31 32 35 35 32 32 30 27 26 33 33 33 32 31 31 31 30 30 32 33 35
24 27 29 29 30 30 32 32 32 32 31 30 29 27 27 26 26 26 27 28 37 39 34 31 28 26 24 22 21 20 24 24 25
28 27 30 31 32 33 35 35 35 36 37 37 36 34 32 31 29 26 28 32 35 34 31 29 25 23 19 18 18 18 18 18 19
31 32 31 31 32 33 35 35 37 37 39 40 39 37 37 37 36 32 31 32 32 30 29 26 21 20 18 18 18 18 17 18 18
38 36 35 33 32 32 35 35 36 37 37 38 40 40 40 41 40 41 36 34 30 28 24 22 21 21 19 19 18 18 18 18 17
44 41 40 37 35 35 37 37 36 37 39 39 40 42 40 40 41 43 41 38 33 30 28 26 22 20 21 20 20 20 21 21 21
47 45 47 45 43 42 43 41 41 40 37 38 41 42 43 43 42 43 40 39 35 35 33 27 24 23 22 22 21 21 21 22 24
48 48 47 51 50 50 49 46 43 41 40 39 38 41 42 44 45 45 43 41 36 35 33 28 25 24 23 23 24 24 25 24 27
47 47 48 52 55 54 53 53 51 46 43 42 42 41 43 43 45 46 45 42 38 34 32 29 27 25 25 26 26 27 27 28 28
49 50 50 52 55 57 59 57 55 54 50 47 43 42 44 45 47 47 47 45 41 35 33 30 29 27 28 29 30 30 30 31 32
47 49 53 54 57 61 65 63 61 59 57 57 52 47 45 46 48 49 48 46 43 38 35 32 30 29 29 30 31 32 33 34 35
41 47 52 50 53 54 56 59 61 60 59 59 57 57 54 50 51 51 51 49 44 40 38 34 30 30 31 31 33 34 36 37 37
40 41 46 51 50 52 54 57 56 57 58 59 57 58 61 61 58 56 56 55 47 42 41 38 34 33 33 34 36 38 38 40 40
45 47 43 47 55 57 59 56 58 59 57 57 61 60 62 66 68 63 63 61 56 48 45 43 40 40 38 38 41 44 45 46 45
45 49 46 47 50 54 62 62 61 66 70 66 65 66 66 69 72 73 73 70 63 56 50 48 44 44 46 45 48 50 51 52 53
31 44 50 53 53 54 60 64 66 69 68 70 68 71 70 76 76 76 77 76 72 68 66 58 58 58 59 54 58 61 62 60 59
29 30 36 49 57 56 58 61 59 63 69 69 68 72 75 78 79 79 79 78 77 76 73 69 67 68 72 68 69 72 71 67 67

GFSFLT1_prec_cthk_045.txt.gz
RH
21 22 24 25 23 22 17 17 18 19 20 21 24 26 27 28 29 27 25 23 27 35 37 37 38 40 41 43 45 45 50 53 56
18 22 23 24 24 21 20 21 21 22 22 23 25 27 28 29 29 28 26 24 28 29 30 32 33 38 39 41 43 45 46 51 56
18 19 22 23 25 24 25 25 26 26 26 27 28 31 32 32 31 28 28 25 26 25 26 27 28 28 32 36 38 40 39 39 41
21 23 24 25 25 26 27 28 28 27 27 26 27 28 29 30 27 28 27 26 29 33 32 30 28 27 27 27 27 27 29 31 33
25 24 25 27 27 29 31 31 30 30 30 30 30 30 29 27 25 24 22 25 33 31 29 25 23 22 20 18 19 18 22 23 23
26 28 29 28 28 30 30 32 33 34 35 35 35 34 33 33 32 30 31 31 32 31 26 24 21 18 16 16 16 16 17 18 19
29 28 30 32 31 31 31 31 32 33 34 34 35 34 34 35 36 35 37 39 34 32 28 24 19 18 17 17 16 16 17 17 17
31 31 33 33 35 36 34 34 34 34 33 34 35 35 35 36 36 35 36 35 34 30 26 24 23 21 20 18 18 17 17 17 18
38 37 37 37 36 38 39 39 37 35 36 36 35 34 35 35 38 40 41 38 35 33 27 26 25 24 22 20 20 19 19 19 19
40 42 42 42 42 42 43 43 42 41 38 37 36 38 38 36 36 39 42 41 39 36 32 29 27 25 23 21 20 20 20 20 20
41 43 45 46 47 46 46 49 49 45 45 46 41 39 40 39 37 39 41 43 42 39 35 31 28 26 25 23 22 22 23 24 24
40 42 44 46 48 50 50 51 53 54 54 50 50 50 45 42 40 39 41 43 44 43 39 34 30 28 27 26 26 26 26 27 27
38 42 42 43 45 50 54 53 56 58 58 57 55 54 53 53 50 44 41 44 46 46 42 37 32 30 29 27 28 28 29 30 30
37 40 41 43 47 50 54 55 56 57 59 60 58 56 54 56 55 55 51 46 49 49 46 41 36 33 31 29 29 31 30 31 33
41 43 43 42 42 45 49 52 54 54 57 58 56 54 55 56 55 55 57 56 53 55 53 47 41 38 35 33 30 31 33 34 35
46 43 45 49 46 47 51 54 56 58 62 64 60 55 53 51 54 57 59 60 63 61 59 56 48 43 41 38 36 36 37 37 39
45 45 48 49 52 53 54 53 55 58 65 71 76 68 61 60 62 60 63 65 66 69 69 65 58 52 47 45 43 45 46 42 46
33 41 45 55 55 52 55 59 63 68 71 72 79 78 71 68 68 68 66 69 73 74 79 79 73 65 57 53 51 52 51 53 54
27 30 35 38 43 49 53 56 55 69 71 74 76 78 75 73 71 71 71 75 76 80 81 81 77 76 74 69 65 60 62 64 64
33 35 35 38 40 44 46 51 61 61 68 70 74 76 79 76 80 81 79 79 80 85 86 85 80 78 78 76 73 70 74 78 74

GFSFLT1_prec_cthk_048.txt.gz
RH
23 27 26 22 21 18 17 18 19 20 19 20 23 25 26 27 26 25 23 25 34 36 34 37 37 38 40 43 45 46 53 57 56
20 23 24 24 23 21 21 22 23 23 24 25 25 26 27 27 26 26 25 26 28 30 32 32 32 35 37 40 42 44 48 50 52
19 21 22 23 23 22 23 24 25 25 25 26 26 28 29 29 29 27 27 25 25 26 25 26 26 27 31 33 36 38 38 38 40
21 22 22 24 24 25 26 26 26 27 26 27 27 28 28 27 25 23 22 21 26 28 27 24 23 22 23 23 23 23 25 27 29
24 24 26 27 26 27 29 29 30 30 29 29 30 30 31 31 30 29 27 30 32 28 24 23 21 19 17 15 16 16 17 20 21
27 27 27 28 30 32 31 30 30 30 30 30 30 30 30 31 30 29 31 36 36 31 25 24 21 17 16 15 15 15 15 16 18
33 32 30 29 31 34 37 35 33 33 33 33 32 32 33 34 34 32 34 38 38 33 30 27 22 20 19 18 17 16 16 16 16
33 34 33 35 35 36 37 36 37 37 36 34 35 36 36 34 35 36 37 38 37 35 32 27 25 24 22 20 18 17 18 17 16
35 36 35 36 37 38 38 40 41 41 40 39 41 38 35 35 36 38 39 40 40 38 35 32 27 26 25 23 20 19 19 19 19
36 38 38 39 40 40 39 40 40 42 44 44 44 45 45 42 37 37 39 41 42 41 40 37 33 28 28 26 23 21 21 20 21
37 38 40 42 41 41 43 44 45 47 48 48 48 50 49 48 49 46 41 41 43 44 44 42 39 31 29 28 26 25 24 23 23
32 34 36 40 44 46 45 45 45 47 50 52 52 51 52 53 53 54 53 52 47 44 46 46 43 37 31 30 29 28 27 27 28
31 31 31 35 40 43 44 46 49 49 51 55 59 54 52 54 54 54 54 57 59 55 49 49 48 44 37 33 32 31 30 30 30
33 34 34 36 39 42 43 43 46 48 49 53 57 58 56 53 50 51 53 54 56 58 60 56 54 51 45 39 36 34 33 32 33
45 43 45 50 50 46 44 48 50 51 52 56 57 56 58 57 54 51 51 52 55 58 62 65 64 58 53 46 41 39 37 36 34
54 48 45 47 48 47 51 53 54 56 59 63 62 63 65 64 63 63 61 58 61 60 63 68 71 72 65 57 51 45 42 42 41
39 41 42 41 46 44 48 55 63 65 66 70 73 74 73 72 74 74 73 72 70 69 71 71 73 74 75 72 64 55 51 48 47
33 36 35 32 33 36 37 45 56 56 65 72 77 74 72 73 74 75 75 76 76 75 75 79 81 82 85 81 76 71 66 60 55
23 26 29 31 35 37 38 39 45 54 59 66 70 72 75 76 72 74 78 79 77 78 80 82 85 88 90 89 82 77 76 73 68
23 26 29 40 45 42 41 41 49 54 60 65 68 87 79 77 78 70 75 81 84 84 84 86 88 91 92 88 86 82 77 77 73

GFSFLT1_prec_cthk_051.txt.gz
RH
24 25 24 20 18 17 19 19 19 19 19 20 21 22 23 22 22 22 22 28 35 34 36 36 34 36 40 42 44 51 54 52 52
23 24 24 22 21 21 22 23 23 24 24 25 26 26 27 25 25 25 24 27 30 29 29 31 31 35 36 40 42 45 48 48 49
22 22 22 23 22 23 24 24 25 26 26 27 28 28 28 28 26 25 23 21 22 23 22 24 24 24 25 29 33 36 37 38 40
23 23 24 23 22 24 25 26 27 27 28 29 30 31 32 31 29 29 28 27 29 29 23 21 20 20 19 20 21 22 25 27 30
25 25 24 25 26 26 27 28 28 28 28 28 29 31 31 30 29 29 29 32 37 34 27 24 22 19 18 16 15 16 17 19 21
27 26 27 27 28 30 32 34 32 31 31 31 32 32 31 30 31 30 31 37 40 35 30 28 24 21 19 18 17 16 16 17 17
30 30 30 30 31 32 33 33 35 36 36 36 34 32 33 34 34 34 34 40 40 38 34 31 26 23 22 21 20 19 17 16 17
30 33 35 35 35 35 37 39 39 38 38 39 41 39 39 39 37 36 36 41 41 39 36 35 31 27 25 25 23 21 20 18 19
32 32 33 35 36 36 38 38 39 41 41 41 43 45 44 45 45 46 44 41 41 40 39 37 36 32 28 27 27 25 22 20 19
34 33 34 36 38 39 37 37 39 41 43 43 45 46 47 48 48 50 50 51 50 47 43 41 40 39 34 29 28 27 26 24 22
36 36 37 39 41 43 44 44 41 41 42 43 46 46 45 47 49 48 53 52 54 55 55 51 44 42 41 35 30 30 29 28 27
33 33 34 36 37 40 41 42 42 43 45 46 48 50 51 47 50 50 52 56 55 57 59 62 59 51 47 43 37 32 32 32 31
33 31 30 32 34 35 37 40 42 44 47 50 52 54 55 56 57 54 55 54 53 56 58 61 62 62 57 50 46 39 36 35 34
33 32 31 37 40 40 43 44 46 45 45 48 51 53 54 57 57 55 55 56 56 57 58 58 61 63 66 64 58 49 42 40 39
37 39 47 45 47 45 44 45 46 45 46 49 51 55 57 58 59 63 67 67 65 64 64 65 65 65 67 69 71 67 54 43 41
53 46 53 56 50 45 48 46 44 44 48 54 60 67 65 67 66 69 71 74 78 76 74 75 77 77 76 76 72 75 73 62 49
39 45 48 46 44 46 44 42 42 41 47 60 67 66 65 67 69 70 72 73 77 82 82 82 82 83 85 86 82 78 77 77 69
32 37 35 37 36 34 32 33 35 39 41 43 61 65 60 63 66 67 66 70 77 77 81 82 82 85 88 91 92 89 84 81 78
24 24 25 27 29 30 29 33 35 40 42 44 48 54 57 64 60 61 70 79 75 76 79 83 83 83 86 91 94 95 91 92 86
22 23 23 24 27 29 31 41 39 39 39 41 47 53 59 66 64 66 62 64 72 78 77 76 78 86 92 93 94 94 95 95 91

GFSFLT1_prec_cthk_057.txt.gz
RH
25 21 19 18 18 19 19 19 20 21 21 23 23 23 23 23 22 24 27 29 30 28 27 25 26 30 35 40 44 43 46 44 38
22 20 19 19 19 20 21 22 23 24 25 25 26 26 26 26 25 24 24 28 29 23 23 23 21 20 25 28 30 35 40 46 45
22 22 21 20 20 21 22 23 24 24 25 26 26 27 27 26 26 25 26 26 26 25 23 23 21 19 18 19 21 23 28 32 37
27 24 23 23 24 26 26 25 25 25 25 26 27 27 27 27 26 26 26 28 30 26 25 24 22 20 18 17 16 16 17 19 26
27 27 27 26 25 26 27 29 29 30 30 30 30 30 30 30 29 29 29 32 37 31 28 29 27 24 21 19 19 17 17 16 18
26 26 27 28 28 29 29 29 30 30 31 32 33 33 33 33 33 33 34 37 42 42 34 33 31 29 26 23 20 20 20 18 19
28 28 28 29 29 29 30 30 30 30 31 32 34 34 35 36 36 36 37 38 45 47 42 41 37 33 31 29 26 22 22 22 21
27 28 28 29 29 29 29 30 30 31 31 33 34 35 37 37 36 35 37 39 48 47 45 45 45 43 39 34 31 30 26 24 24
30 27 28 28 29 29 29 30 31 33 34 34 35 35 36 38 38 38 38 38 39 45 44 45 47 47 46 44 38 33 33 28 26
32 31 30 29 30 31 34 35 35 34 35 37 39 40 41 42 42 41 41 41 41 43 45 47 50 50 49 49 47 43 37 34 32
29 32 34 33 34 36 36 37 37 37 39 40 40 42 44 45 44 45 47 47 46 47 49 49 50 52 54 55 54 50 46 42 37
31 33 34 35 35 34 34 34 34 37 39 41 44 45 46 46 47 48 50 51 53 56 58 56 56 58 60 61 60 59 57 51 48
32 32 34 36 35 34 34 34 35 41 42 44 44 44 44 44 45 46 48 51 54 58 61 61 60 61 62 66 68 68 67 64 57
33 34 36 38 36 36 36 38 45 47 48 46 44 43 43 43 44 44 48 53 58 64 67 68 69 69 68 68 71 73 74 74 71
37 35 37 39 39 39 41 47 50 50 49 48 44 41 44 45 45 44 48 57 65 68 66 68 68 71 70 69 69 76 78 79 82
36 34 35 38 39 40 42 47 47 46 46 48 43 39 34 31 35 41 43 45 52 58 62 62 64 66 67 68 70 72 72 75 80
33 32 32 33 34 34 38 41 41 44 46 41 36 32 28 29 35 40 44 43 48 51 55 58 64 65 65 66 70 70 71 75 78
36 37 39 40 43 36 35 34 33 33 32 33 36 42 40 36 40 41 42 43 46 50 54 60 62 62 67 68 67 70 70 70 75
32 34 35 35 33 31 29 30 30 32 33 34 33 37 38 43 45 47 46 47 46 51 57 60 61 63 62 63 62 63 64 69 72
27 28 29 27 25 25 24 25 25 26 31 32 34 34 39 45 51 51 51 55 57 57 55 52 49 50 54 53 54 55 58 61 65

GFSFLT1_prec_cthk_060.txt.gz
RH
21 19 18 18 18 18 18 18 19 20 22 23 23 23 22 23 28 29 29 30 26 24 23 21 22 25 27 29 32 34 40 38 37
21 20 19 19 20 20 21 21 22 23 24 24 25 24 24 25 25 30 31 27 23 22 22 21 20 19 20 23 24 26 31 35 41
24 23 21 20 21 21 21 21 22 22 24 24 25 24 24 24 24 24 29 24 23 24 24 23 22 19 18 18 18 21 22 28 33
27 25 24 23 25 25 25 25 25 26 27 27 28 28 28 29 27 28 31 29 26 26 26 26 24 23 21 18 18 17 16 18 24
28 29 29 27 25 25 26 28 28 29 30 31 31 30 31 32 31 32 33 36 41 36 35 32 29 26 24 23 20 20 19 17 17
28 29 28 28 28 28 29 28 28 29 30 31 31 32 33 33 33 33 34 37 43 46 42 40 39 36 32 28 26 24 22 22 21
28 28 28 28 29 29 29 29 29 30 30 31 31 32 33 34 34 34 34 34 40 49 46 42 42 42 41 38 34 30 27 23 24
28 28 28 28 28 28 29 29 29 30 31 31 32 33 34 35 36 37 37 36 37 44 44 41 42 44 45 44 42 38 33 29 26
31 28 27 27 27 28 28 29 29 30 30 31 32 34 36 37 38 38 37 37 37 40 43 40 41 43 45 47 47 45 43 40 34
31 31 28 28 27 27 29 31 33 33 32 32 34 36 37 39 38 38 38 39 39 40 44 44 46 50 50 51 52 52 48 45 42
30 31 32 31 30 31 33 36 36 35 34 35 38 38 39 40 40 40 42 44 46 44 44 46 51 53 54 53 53 55 56 53 49
30 31 33 34 33 32 33 34 33 33 34 38 41 41 41 40 41 41 42 42 44 46 48 50 53 56 56 59 60 59 58 60 57
35 34 34 34 33 33 34 34 34 34 37 42 44 44 41 41 40 39 39 41 43 43 47 54 61 62 63 63 62 63 64 64 64
39 39 37 36 35 36 35 34 35 38 43 47 47 46 46 44 43 42 43 42 43 47 50 53 58 59 61 63 64 65 65 67 70
42 40 40 40 39 37 38 38 41 42 46 52 48 48 47 46 44 42 39 37 39 44 48 51 55 58 59 58 61 63 64 66 69
42 39 39 38 37 37 39 41 45 49 49 51 45 44 44 41 30 30 32 34 37 40 44 48 52 54 56 57 61 61 62 64 68
40 38 36 34 34 34 36 39 43 43 41 44 42 37 33 34 31 38 37 37 40 41 44 47 50 52 53 57 60 59 60 64 68
38 37 36 36 37 39 43 45 45 44 39 37 39 43 39 42 39 36 36 38 40 42 44 45 49 51 56 60 60 60 59 62 65
33 32 32 33 35 35 37 36 35 35 34 34 34 37 41 40 43 39 35 41 44 45 49 54 55 56 56 55 57 56 55 55 55
29 27 25 25 25 27 29 28 26 26 26 27 31 33 38 39 40 40 42 49 47 51 54 54 51 50 45 43 43 46 51 51 52

GFSFLT1_prec_cthk_063.txt.gz
RH
19 18 18 17 17 18 18 18 19 21 22 22 22 21 23 28 31 33 30 28 22 22 21 19 19 21 22 23 25 28 31 34 39
20 19 19 19 20 20 21 21 22 22 23 22 22 22 22 27 29 29 30 22 22 21 21 21 19 18 17 18 20 21 25 29 32
22 20 20 20 20 20 20 21 22 22 22 23 23 23 24 28 28 28 28 25 24 24 24 23 22 21 20 18 17 18 20 23 27
25 24 23 23 24 24 25 25 25 26 26 26 26 26 27 31 29 32 34 31 30 31 32 30 28 25 23 22 21 19 18 18 22
28 28 27 26 25 25 25 26 27 28 28 28 29 29 30 33 33 35 32 33 35 35 35 36 35 34 32 28 26 25 23 20 19
28 28 28 28 28 28 28 28 28 29 29 29 29 30 33 33 34 35 34 33 34 36 39 38 37 38 38 36 34 31 28 25 23
35 28 28 28 28 29 29 29 29 29 31 31 30 31 34 34 34 34 35 35 34 36 41 40 36 38 39 40 40 39 36 34 30
29 29 27 27 28 27 28 28 29 32 30 30 29 29 30 32 34 35 35 34 32 33 37 40 37 38 39 41 43 44 42 41 38
34 32 32 31 32 31 34 33 33 31 28 29 29 31 33 34 37 36 35 34 32 33 34 37 37 38 41 46 46 47 46 44 42
34 34 31 31 31 31 31 32 33 35 35 35 33 34 37 37 36 35 35 36 36 38 37 40 40 41 43 46 49 50 51 50 48
36 36 34 32 30 32 33 34 37 38 37 35 34 35 38 38 38 38 38 37 38 40 39 38 37 42 44 48 49 50 50 51 52
38 36 35 35 34 33 34 35 36 37 36 35 35 38 39 42 41 38 37 37 37 40 40 41 41 43 47 55 58 56 55 53 55
40 41 41 40 38 36 36 37 37 35 34 35 37 41 44 46 45 44 43 42 41 40 40 41 41 44 46 52 56 57 58 58 60
41 44 44 43 42 41 39 39 37 36 37 39 42 45 45 49 50 47 47 45 42 38 40 38 41 45 46 49 52 55 58 59 63
48 47 46 45 43 43 43 42 42 43 42 46 51 52 49 47 46 45 43 38 33 33 33 37 38 42 47 48 50 53 56 64 66
51 49 47 46 44 43 42 42 41 42 46 50 46 44 43 44 37 31 31 35 37 38 36 38 42 45 44 46 49 52 53 59 64
49 47 45 44 44 42 42 42 44 45 49 50 51 50 43 40 40 36 35 34 39 36 37 40 41 43 46 47 47 50 53 60 62
45 44 43 43 44 42 41 40 42 46 46 49 50 47 44 41 39 40 36 35 36 36 40 44 44 46 46 48 51 54 56 55 56
43 40 37 35 34 33 34 34 35 38 39 40 39 39 40 40 40 39 38 37 37 40 47 48 50 51 53 52 52 52 48 49 50
37 36 34 32 30 29 27 26 25 27 30 31 33 31 32 33 36 45 42 46 45 47 53 48 45 43 43 41 40 41 41 42 42

GFSFLT1_prec_cthk_066.txt.gz
RH
17 16 16 16 16 17 17 18 20 20 20 20 21 22 25 27 27 27 22 20 20 20 21 21 20 18 18 20 22 24 29 30 34
18 18 18 18 18 19 20 20 21 21 20 20 20 21 23 24 25 25 23 23 24 24 23 22 21 20 19 18 18 20 22 25 29
19 19 19 19 18 18 19 20 21 22 22 23 24 24 26 27 27 28 29 28 29 30 30 30 28 26 24 21 20 19 20 21 25
24 22 22 22 22 22 22 24 25 25 25 26 26 26 28 28 29 30 31 32 31 32 33 33 33 31 31 29 26 24 21 21 21
27 27 26 26 26 26 25 25 26 26 26 27 27 28 29 29 31 32 33 34 34 34 33 33 32 32 33 34 33 31 29 27 25
28 29 28 28 28 28 29 28 28 27 27 28 29 29 29 30 30 32 33 34 35 34 35 36 35 34 33 34 36 35 35 34 33
30 29 29 29 29 29 29 29 29 28 28 29 29 28 27 29 30 31 33 32 31 30 31 33 35 34 34 35 37 39 39 39 37
32 30 29 28 28 28 28 28 29 28 28 27 27 27 27 29 31 33 32 30 30 29 29 31 33 33 34 35 37 41 44 44 42
32 33 30 28 27 26 28 28 31 30 28 28 29 29 29 31 32 31 30 31 33 33 33 34 35 34 34 35 38 41 45 47 46
39 35 32 31 30 29 29 30 29 31 33 34 33 31 29 31 33 35 37 36 35 35 34 33 35 35 36 36 37 41 45 47 47
40 40 34 31 30 29 29 30 33 34 34 35 33 32 30 32 34 36 38 39 38 36 37 38 38 36 37 38 41 44 48 48 47
42 39 37 34 33 33 32 32 32 33 34 33 32 32 32 33 36 39 40 40 39 40 40 39 40 39 38 37 40 42 48 51 52
42 42 38 39 40 38 38 36 34 34 34 33 34 35 38 41 43 44 45 43 40 38 38 36 38 39 40 41 42 44 45 51 55
45 45 44 44 44 43 40 40 40 41 40 43 48 47 51 52 51 48 47 46 45 40 33 31 34 37 40 43 44 47 51 52 57
51 50 50 49 49 48 45 44 45 46 45 45 46 48 50 50 46 43 40 39 38 36 37 37 38 37 39 43 45 46 45 52 60
56 55 54 53 50 49 48 49 48 47 47 48 47 52 49 50 50 45 43 39 39 36 36 39 38 39 39 42 46 47 47 48 55
58 56 54 54 50 47 45 46 47 48 47 46 46 50 46 44 40 39 37 38 39 39 36 36 39 43 44 46 45 46 48 50 53
56 53 52 51 49 47 45 44 43 45 43 42 47 53 48 44 42 41 41 40 39 40 38 40 42 49 48 50 51 53 50 53 54
53 51 49 46 43 40 37 37 38 38 38 39 38 40 44 45 43 37 39 40 39 42 41 46 49 51 48 45 46 45 43 41 45
53 49 45 42 39 37 35 33 30 30 31 31 32 34 34 35 40 41 36 36 41 46 49 48 49 52 51 46 40 40 38 38 38

GFSFLT1_prec_cthk_069.txt.gz
RH
15 15 16 16 16 16 17 18 19 19 19 22 24 25 24 24 23 22 22 23 23 24 23 22 21 20 19 18 19 20 22 24 30
17 17 17 18 18 19 19 19 19 19 20 21 23 23 25 25 25 25 25 26 27 28 28 28 27 26 25 23 22 20 20 21 23
18 18 18 18 18 19 19 20 21 22 23 24 25 26 27 28 27 28 29 29 29 30 29 29 29 29 28 29 28 26 24 22 22
22 21 21 21 21 22 22 23 24 24 25 26 26 28 28 28 28 29 30 31 32 32 31 30 30 31 31 31 30 30 30 29 27
25 25 25 25 25 26 26 26 26 26 26 27 28 28 28 28 29 30 31 32 31 30 30 31 29 30 32 33 32 32 32 34 33
28 27 28 27 28 28 29 29 28 28 28 29 29 29 27 26 28 30 32 32 30 29 30 29 29 29 30 32 34 35 36 36 36
29 29 29 28 28 29 29 30 29 29 29 28 27 27 26 26 28 30 30 29 28 28 29 29 30 30 31 32 34 37 39 38 39
33 31 29 28 27 26 26 27 28 28 28 27 27 27 28 27 29 29 29 31 33 35 33 31 30 30 31 32 33 35 38 39 40
35 32 31 27 26 25 25 25 26 27 26 28 30 31 30 28 28 30 31 35 36 38 38 34 33 33 33 34 35 35 37 40 42
39 37 34 30 27 26 26 26 26 26 29 30 31 30 30 29 29 30 32 36 39 40 40 37 36 36 35 35 36 37 39 41 45
40 40 36 32 29 28 27 28 28 29 30 31 32 30 29 29 30 31 35 39 42 43 42 41 40 40 39 35 33 35 40 44 45
41 41 37 36 33 32 33 34 35 34 34 33 34 32 32 33 37 43 44 46 46 47 46 43 40 37 35 38 44 44 41 42 47
42 39 40 41 39 38 39 38 36 36 37 37 38 39 45 45 48 52 50 47 48 45 43 41 35 33 38 41 41 49 56 56 54
41 41 43 45 45 44 43 42 42 42 42 43 44 42 43 45 49 51 51 52 57 50 43 41 36 37 39 39 38 42 48 57 59
44 45 48 51 50 49 50 49 49 47 46 46 44 44 44 43 47 47 46 47 46 43 40 40 38 38 38 38 41 43 44 47 54
49 52 54 56 56 55 53 51 50 49 46 46 43 41 40 39 39 42 39 45 51 40 40 42 39 39 37 39 43 45 46 49 48
61 62 61 59 59 57 53 50 48 50 47 46 44 42 39 40 44 40 37 42 44 43 41 40 40 39 40 46 47 46 48 48 49
70 70 69 65 60 55 53 51 51 51 44 45 46 48 46 46 45 45 43 45 45 46 42 40 41 41 46 51 48 44 43 43 44
67 66 62 63 62 58 52 47 45 44 39 37 38 41 46 47 48 41 38 39 39 41 40 38 45 48 48 49 49 50 45 42 43
62 62 65 62 58 52 48 46 45 41 37 35 33 34 36 40 43 42 34 38 39 43 43 42 46 48 47 46 50 50 41 38 37

GFSFLT1_prec_cthk_072.txt.gz
RH
13 14 15 16 16 17 18 18 19 20 21 23 24 25 26 25 24 24 24 25 25 26 26 25 24 24 24 24 23 22 23 25 27
16 16 17 17 18 18 18 18 19 20 22 23 24 25 26 27 27 26 26 27 28 28 28 27 26 25 26 26 27 27 26 24 25
17 17 17 18 18 19 20 21 22 23 23 24 25 26 27 27 27 28 29 29 30 30 29 28 29 28 28 28 28 29 29 29 29
20 20 20 20 21 22 22 23 24 25 25 26 27 28 28 28 28 29 29 31 31 31 30 32 29 27 28 28 29 30 31 31 31
24 23 24 24 25 25 25 25 25 26 26 28 28 28 27 26 28 29 30 31 30 30 29 29 30 27 27 29 30 30 31 33 34
27 26 26 27 27 27 28 28 27 27 26 26 25 25 25 25 27 28 29 29 29 30 32 33 32 30 29 29 30 32 33 34 35
30 29 29 28 28 28 28 28 28 27 26 25 25 24 25 27 27 28 28 29 31 33 36 36 34 31 30 30 30 31 32 34 35
33 31 30 27 26 26 25 25 25 25 25 24 24 26 28 28 26 27 30 32 35 37 40 39 37 36 34 32 33 33 33 34 37
35 34 31 28 26 25 25 26 26 26 26 28 31 32 31 29 27 28 30 33 35 39 41 40 39 39 38 37 36 34 34 35 38
35 35 35 32 29 26 26 26 25 26 27 29 29 30 31 29 28 28 30 33 38 40 42 41 40 40 45 41 37 37 36 37 39
38 38 40 36 33 30 29 29 29 29 30 29 30 30 30 29 30 33 38 44 47 49 48 47 43 41 41 35 37 43 46 45 43
40 38 42 39 37 36 34 33 33 35 34 34 34 33 35 36 39 41 44 48 48 47 52 49 46 41 33 37 49 49 48 57 57
44 40 40 41 42 43 42 41 41 40 40 40 40 40 39 42 42 43 46 51 48 50 52 50 45 37 36 34 38 45 58 62 63
48 45 40 42 45 48 49 48 48 47 47 45 45 45 45 44 43 43 44 47 48 47 47 45 43 41 38 36 36 35 39 55 60
53 48 42 45 47 51 52 52 54 54 52 50 48 47 44 42 39 38 40 43 46 46 45 42 40 41 39 39 37 38 40 43 46
63 56 48 49 51 53 57 57 57 55 55 52 49 47 43 42 41 41 40 41 43 44 48 43 39 41 38 39 39 40 46 46 52
66 68 64 60 58 58 61 62 62 59 54 54 52 46 42 39 38 40 42 41 44 44 50 50 46 41 41 42 39 44 43 42 43
69 69 67 67 68 71 69 64 62 62 59 55 55 53 50 45 44 46 44 45 48 48 50 49 42 38 44 46 45 47 45 47 47
72 66 66 68 69 68 65 63 62 57 52 50 52 48 49 47 47 45 42 46 47 46 48 46 43 43 49 49 48 48 43 45 45
81 78 72 69 65 64 63 58 52 50 48 45 43 42 41 43 47 44 42 40 41 46 46 45 44 47 53 51 51 49 44 45 38

GFSFLT1_prec_cthk_075.txt.gz
RH
19 15 14 16 17 17 18 18 18 20 20 21 22 23 24 24 24 24 25 27 27 28 27 27 26 25 25 25 26 26 27 32 30
15 16 17 18 18 17 16 18 20 21 22 22 23 24 24 25 25 26 27 27 29 29 29 29 28 28 26 25 25 27 27 28 30
17 18 18 18 18 19 20 20 20 21 21 22 23 23 24 24 25 26 27 29 29 30 30 29 28 28 27 27 27 27 28 29 29
18 19 19 20 21 22 22 22 23 23 23 24 24 25 24 24 25 26 27 28 28 28 28 29 29 28 27 27 27 28 29 29 30
22 23 23 24 25 25 25 25 25 25 25 26 25 25 24 24 25 26 27 27 27 28 29 31 32 30 29 28 28 29 30 31 31
25 25 24 25 25 26 27 27 27 26 25 25 25 24 24 26 27 27 27 27 28 30 32 35 34 33 31 29 28 28 30 30 31
29 29 28 26 26 26 26 26 26 25 24 25 24 25 26 28 27 26 26 28 30 33 34 37 36 36 35 34 32 31 30 31 31
33 33 31 29 28 27 26 26 25 25 24 25 24 25 28 29 28 27 27 29 31 33 36 37 38 38 38 37 36 34 32 32 33
35 35 34 31 29 27 27 26 26 26 26 25 28 30 29 29 29 28 29 30 32 36 40 42 42 42 42 41 41 34 33 34 34
37 36 36 36 31 30 28 29 29 29 29 30 30 30 31 32 31 30 33 37 42 48 49 47 47 44 44 41 37 36 39 41 42
37 36 37 40 38 34 33 32 32 33 34 34 34 35 34 34 35 38 41 44 47 51 50 50 50 49 43 38 37 43 49 49 50
44 42 40 39 42 38 37 36 35 36 37 38 38 39 39 40 40 41 42 44 47 51 51 50 52 49 40 36 36 44 49 56 57
50 47 43 42 41 42 41 42 40 42 42 42 43 44 44 44 45 44 43 43 45 47 50 50 49 47 43 38 33 38 45 46 54
55 51 48 47 43 42 46 48 48 47 49 48 48 48 48 48 45 45 43 43 44 47 47 51 47 49 45 37 33 35 36 37 40
62 56 55 52 47 44 48 51 51 51 53 55 55 52 50 47 45 44 44 43 44 45 46 48 48 51 46 42 36 36 39 40 44
66 63 62 60 54 50 52 54 56 59 59 57 58 52 48 47 43 42 40 41 45 44 45 45 50 60 51 42 41 41 40 40 44
61 60 64 64 67 65 62 57 59 63 63 61 60 57 51 48 45 42 40 44 45 44 44 47 54 56 52 48 45 45 43 46 45
63 63 64 68 71 73 70 72 71 72 69 64 64 62 56 51 50 52 49 48 45 46 48 50 49 46 50 47 52 50 48 48 45
66 70 72 75 75 75 74 74 73 69 65 62 60 58 55 54 47 46 46 46 46 48 49 48 46 48 49 49 54 54 51 51 48
89 88 88 90 87 83 81 71 68 68 65 60 59 56 51 48 47 45 41 43 42 45 47 46 44 46 51 54 61 60 54 53 53

GFSFLT1_prec_cthk_078.txt.gz
RH
24 18 14 16 17 19 18 18 19 20 21 22 22 22 22 22 22 23 25 26 27 27 26 27 26 26 25 25 24 24 25 33 33
18 16 17 18 18 18 20 20 21 22 22 23 23 23 23 23 24 25 26 27 28 27 27 26 26 26 26 25 24 25 26 26 26
16 17 18 17 18 20 21 22 23 23 23 24 23 24 24 23 24 24 26 27 26 26 27 28 28 28 27 26 25 25 26 26 27
17 17 18 19 20 21 22 22 23 23 24 24 24 24 23 23 24 25 25 26 26 26 27 29 31 30 29 27 27 27 26 27 27
19 21 22 23 24 24 24 24 24 25 24 25 24 24 23 23 24 25 25 25 27 29 31 32 33 32 31 29 28 28 27 27 27
22 23 24 25 25 26 26 26 26 25 25 25 25 24 24 25 26 25 25 26 28 30 32 34 34 35 34 33 31 30 28 28 27
26 26 26 26 26 26 26 26 26 26 25 25 25 25 26 27 27 26 26 26 28 29 31 33 36 37 38 37 36 35 31 28 28
31 31 31 30 29 28 28 27 26 26 25 25 25 25 28 30 29 28 28 28 28 31 36 40 40 41 41 41 40 38 34 31 31
35 35 35 34 32 29 28 27 27 27 27 26 27 29 31 31 32 31 30 31 35 38 42 45 44 45 44 45 44 39 34 36 38
38 38 37 36 35 32 29 28 29 30 30 31 33 33 33 33 33 34 37 40 42 44 47 47 45 49 49 45 40 40 40 43 44
41 39 38 37 37 39 35 34 32 32 33 35 36 36 36 36 37 39 40 42 45 47 48 47 44 48 50 44 45 44 45 45 46
45 43 41 41 41 41 40 39 38 37 38 39 40 40 40 41 42 43 43 44 44 44 45 48 51 50 45 44 50 47 44 53 54
54 51 49 46 45 44 42 43 43 44 44 44 45 46 46 46 44 46 45 43 44 44 44 51 54 54 47 45 41 41 40 38 43
61 57 54 52 51 50 47 45 48 50 50 50 51 52 50 49 48 45 46 44 44 44 46 47 52 50 47 45 45 43 42 41 41
69 67 60 55 52 54 51 48 50 53 54 54 56 53 53 50 47 45 44 44 43 45 47 47 48 51 47 53 53 44 42 44 41
71 73 71 64 58 58 58 55 53 58 55 56 56 56 54 51 50 48 46 44 41 44 49 47 46 48 51 59 50 47 39 41 43
82 80 72 66 63 65 67 67 66 60 58 58 57 56 55 53 51 49 49 46 47 51 50 49 48 49 51 53 50 47 42 45 48
80 74 81 77 77 73 73 72 68 65 65 67 68 68 64 61 59 56 54 51 49 48 50 46 51 53 51 50 49 51 48 50 51
83 88 90 85 84 83 82 80 75 75 71 69 73 76 73 69 61 57 56 52 49 48 48 52 52 51 50 48 54 53 53 58 58
94 95 93 94 96 94 90 84 83 81 77 74 73 68 64 62 60 55 50 50 48 47 48 52 53 52 52 53 51 54 56 57 61

GFSFLT1_prec_cthk_081.txt.gz
RH
21 12 13 16 18 18 18 19 20 21 22 22 22 22 21 22 22 24 25 26 25 24 24 24 24 24 24 23 23 23 24 25 28
17 14 16 18 18 18 20 21 22 23 23 23 22 22 22 22 23 24 25 25 25 25 25 25 26 26 26 25 23 23 23 24 25
17 17 18 18 18 19 21 22 23 24 24 23 23 23 23 22 23 23 24 24 24 25 26 26 27 28 27 27 26 25 24 24 24
18 18 18 18 21 22 23 24 25 25 25 25 25 24 23 23 24 23 24 23 24 27 28 29 29 29 29 28 28 27 27 26 25
18 18 20 20 22 24 25 25 25 25 26 25 25 24 23 24 25 24 24 25 26 28 29 29 30 31 32 32 32 31 30 28 26
19 21 23 24 24 25 26 26 26 26 26 25 25 24 24 25 26 25 24 25 26 27 28 30 33 35 36 36 34 34 33 31 28
22 23 24 26 26 26 27 26 26 26 25 25 25 25 25 27 28 27 26 26 26 27 31 35 38 39 39 39 37 37 36 34 31
27 28 28 28 28 28 28 28 27 26 26 25 24 24 25 27 28 28 27 26 28 31 35 38 41 41 41 42 43 40 37 35 35
32 32 31 32 31 30 29 28 28 27 26 26 26 27 29 29 30 30 30 32 34 36 39 41 42 40 44 45 43 41 37 39 40
36 35 35 35 35 34 31 29 28 28 30 30 31 32 32 33 34 35 36 37 39 41 43 43 43 43 48 49 44 44 44 45 46
40 39 39 37 36 36 36 33 33 32 32 33 35 36 37 37 38 40 41 42 42 43 43 44 44 46 47 48 45 51 49 44 49
43 43 42 40 40 40 40 40 38 38 38 39 39 40 40 42 43 43 43 42 42 41 41 42 42 44 49 51 55 51 50 46 44
45 46 46 45 45 45 44 44 42 42 44 45 44 46 47 47 46 44 43 43 43 43 44 42 44 49 52 47 46 50 41 38 43
54 56 55 54 51 50 49 48 45 45 48 50 49 49 47 47 46 47 45 43 43 43 43 44 46 47 51 50 46 49 48 40 42
66 66 67 63 58 55 54 55 55 53 50 52 52 49 49 48 48 47 47 45 44 41 42 46 48 48 49 48 48 52 49 44 42
77 76 74 72 66 62 59 59 62 62 56 54 49 51 49 46 48 46 44 42 40 41 42 48 49 48 47 48 48 50 45 44 42
84 82 83 77 74 71 67 66 68 68 66 60 55 53 48 46 50 52 51 46 47 47 49 50 48 50 50 52 52 53 45 44 44
94 95 93 93 90 86 79 73 70 73 71 72 67 60 61 62 65 66 64 62 62 56 51 50 46 48 53 59 57 54 47 49 49
98 95 89 84 91 98 94 94 90 90 84 74 69 67 67 70 70 66 63 62 59 57 52 50 51 53 57 57 58 56 52 54 55
91 90 90 95 94 98 98 98 96 91 87 82 77 74 75 74 70 67 64 61 58 57 53 52 52 54 57 59 61 60 60 60 56

GFSFLT1_prec_cthk_084.txt.gz
RH
40 19 12 17 17 17 18 19 19 20 20 20 19 20 21 22 25 24 25 24 23 22 22 23 23 23 23 23 23 23 23 23 26
23 12 16 19 18 18 20 21 22 22 22 22 22 21 21 23 24 28 30 24 23 23 24 24 24 24 25 25 25 25 25 25 23
14 16 19 20 20 21 21 22 23 23 23 23 22 22 21 21 22 24 29 23 23 25 27 27 26 26 26 27 27 27 27 27 26
17 19 21 21 21 22 23 23 24 24 24 23 23 23 22 23 23 23 27 23 24 27 28 27 27 28 28 30 29 28 28 27 26
18 20 19 21 22 23 24 24 25 25 25 25 24 23 22 23 23 23 23 24 25 26 26 27 29 32 33 33 33 32 32 31 30
19 19 20 22 24 25 26 26 26 26 26 25 25 24 23 23 25 24 23 24 24 25 27 31 34 36 36 36 35 35 34 33 31
26 20 21 24 25 26 27 27 27 26 26 25 25 24 23 24 26 25 24 24 25 27 31 34 37 39 38 39 40 39 37 35 33
22 23 24 25 27 27 27 27 27 26 26 25 25 23 23 26 26 26 26 26 29 31 34 37 38 40 38 42 43 41 40 36 35
27 30 29 29 28 29 28 28 27 26 26 26 26 26 27 28 28 30 29 31 34 36 38 39 39 41 42 46 46 41 40 40 40
30 31 32 32 32 31 30 29 28 27 27 28 29 31 33 32 31 33 33 35 37 39 40 40 42 43 48 53 48 45 43 45 43
35 35 35 36 36 35 34 32 31 30 31 34 34 36 35 36 36 37 38 38 38 38 39 40 42 42 43 42 50 56 50 51 47
40 41 42 41 39 37 35 36 36 36 35 37 39 40 42 41 41 41 42 41 39 39 39 40 40 41 45 48 56 54 52 54 45
48 49 48 47 44 42 40 40 40 41 41 44 45 45 46 47 48 48 45 43 42 42 40 42 42 45 46 50 55 57 52 55 49
58 49 49 50 48 47 45 45 43 47 44 46 50 50 49 50 49 50 50 47 45 45 44 41 43 45 48 49 52 52 48 50 50
63 53 56 57 55 53 52 50 47 48 51 52 51 54 52 51 52 52 50 46 43 41 39 38 41 44 47 46 52 49 50 52 48
74 69 68 65 66 64 61 56 54 55 60 60 58 55 50 46 49 48 45 45 42 40 39 43 47 51 50 51 50 50 51 47 46
86 81 80 79 79 80 72 66 63 61 63 64 68 62 55 47 46 50 48 48 49 51 53 55 56 56 53 51 53 55 56 53 53
86 93 93 94 90 88 86 85 74 71 72 72 73 67 60 61 60 58 58 56 59 62 59 57 57 53 51 53 57 61 61 58 54
94 96 98 95 98 98 98 97 93 92 91 91 84 70 68 70 66 67 65 64 66 66 64 60 57 58 59 60 58 57 57 60 57
95 97 96 93 96 98 98 99 94 97 98 97 95 91 78 74 76 75 76 76 73 68 64 61 56 54 55 57 57 57 58 58 58

GFSFLT1_prec_cthk_087.txt.gz
RH
41 35 25 26 21 17 18 18 18 18 19 19 19 20 22 26 27 25 24 22 21 20 21 22 22 22 23 23 23 23 24 24 26
43 25 26 24 18 19 19 20 20 20 20 20 20 20 22 27 28 30 24 21 21 22 23 24 24 24 24 24 25 25 25 25 25
31 17 23 22 19 20 21 20 21 22 21 21 21 21 21 26 27 29 22 21 22 24 26 26 25 25 26 26 27 27 27 27 27
17 15 23 20 20 21 22 23 23 23 22 22 22 22 22 27 26 28 24 22 23 25 26 25 26 28 30 30 29 28 29 28 27
15 19 23 21 22 22 23 24 24 24 24 24 23 23 22 26 24 26 22 22 23 23 24 25 29 32 33 33 32 31 31 30 29
19 22 26 24 24 24 24 24 25 26 25 25 24 23 25 26 27 26 22 22 22 23 25 28 31 33 35 35 35 36 34 32 30
28 22 22 24 25 25 26 26 26 26 26 24 24 24 25 25 27 26 23 23 23 25 28 31 33 35 36 35 38 39 38 35 32
30 22 21 24 26 27 27 27 26 26 29 28 25 26 25 25 27 25 25 25 27 29 31 34 35 35 37 39 41 41 39 38 37
31 23 22 25 26 29 28 29 30 29 29 28 27 26 25 27 28 28 28 28 30 33 36 37 37 39 40 44 45 41 41 42 46
30 31 31 33 32 34 33 33 32 30 29 28 28 28 29 32 33 33 32 32 34 36 37 38 37 36 47 46 46 46 51 48 46
35 35 35 36 36 34 33 34 33 32 31 31 32 33 34 35 37 36 37 36 36 36 36 37 38 38 38 44 50 61 58 56 51
38 39 39 35 35 38 38 41 36 35 35 35 36 36 41 40 39 42 42 42 37 37 38 39 41 43 41 43 51 59 58 53 52
40 43 44 45 44 41 48 41 39 42 40 40 41 42 43 44 45 46 46 46 48 47 45 44 44 44 44 44 48 52 52 52 52
48 47 47 49 50 53 53 46 45 45 45 45 48 51 51 50 49 48 49 50 49 47 46 43 39 40 44 46 48 53 53 54 52
59 56 54 52 53 62 55 51 52 51 51 52 52 53 53 54 51 50 51 50 47 46 44 42 44 45 44 48 50 57 56 54 54
70 68 66 58 59 72 61 58 56 55 54 58 58 58 57 56 53 50 46 45 46 42 44 45 47 55 55 58 56 56 58 60 59
79 79 75 71 75 74 69 70 65 66 62 60 64 65 65 64 54 52 49 45 47 47 47 47 51 56 60 58 58 58 58 61 59
84 80 83 82 82 80 79 81 82 77 75 68 73 76 70 69 62 63 58 57 58 59 58 56 60 62 61 59 60 61 64 63 65
86 88 85 86 90 91 95 92 99 96 90 88 86 90 89 87 79 71 64 62 62 64 67 68 67 66 63 62 62 63 63 61 62
87 94 92 90 89 90 92 98 95 99 96 95 95 96 96 92 88 80 77 74 76 75 75 77 70 64 59 57 58 59 60 61 60

GFSFLT1_prec_cthk_090.txt.gz
RH
50 43 34 36 30 24 15 16 16 17 17 18 19 20 23 22 23 22 21 20 19 19 21 22 22 22 22 22 23 23 23 24 24
45 38 34 31 21 16 17 17 17 18 18 19 20 21 23 26 27 22 21 20 19 20 22 23 23 23 24 24 24 24 25 25 24
45 31 30 20 17 19 21 19 19 19 19 20 21 21 23 25 25 22 20 20 21 23 24 23 23 25 26 27 27 26 26 26 26
51 32 29 19 19 23 21 21 21 21 21 21 21 21 23 25 25 24 21 21 22 23 23 23 25 28 29 30 29 28 28 28 27
50 31 26 19 20 23 23 23 23 23 22 22 22 22 23 23 25 25 22 21 21 21 21 25 28 31 32 32 32 32 32 30 29
47 31 27 21 22 23 24 24 25 25 24 24 23 23 23 24 26 25 22 21 21 21 24 27 29 31 32 32 33 35 36 34 32
38 38 31 26 24 24 24 25 25 26 26 25 24 23 24 24 25 25 24 23 23 23 26 28 31 31 31 34 37 37 38 36 35
38 35 31 26 25 25 25 25 26 26 26 27 25 25 25 24 24 25 24 24 24 26 29 32 32 33 35 37 41 40 37 38 40
37 34 24 24 25 26 27 27 27 27 29 29 27 27 25 25 26 27 28 27 28 30 32 34 34 35 39 44 43 42 41 47 47
34 29 25 24 26 27 28 29 30 31 29 28 29 28 27 30 32 30 30 30 31 32 34 33 32 33 35 44 47 48 56 55 51
31 31 26 27 30 31 34 33 33 32 30 31 32 30 31 34 35 32 33 35 35 35 34 34 35 36 36 38 49 58 63 59 56
35 36 33 34 34 36 35 34 35 35 34 36 34 33 33 35 37 37 37 38 39 38 38 38 40 41 42 43 45 55 58 59 53
36 35 35 36 35 36 38 39 39 39 40 45 38 36 37 40 42 44 45 44 45 44 46 45 44 43 40 40 43 51 54 52 50
36 36 37 39 42 42 43 43 41 42 47 52 43 44 44 45 47 50 48 47 48 49 46 44 41 39 40 42 45 45 50 56 56
42 43 45 48 49 51 49 48 47 47 55 54 46 48 51 54 52 54 56 55 50 46 42 42 41 44 45 44 45 46 50 58 57
53 54 56 54 54 52 52 58 55 55 67 59 56 55 57 58 57 57 55 52 46 41 39 41 42 42 43 44 49 55 57 60 61
69 68 66 63 59 60 68 72 67 63 78 65 66 64 67 63 62 63 59 53 48 48 46 45 44 44 49 52 54 58 59 61 59
79 78 80 81 75 77 75 79 73 74 78 80 76 75 75 74 74 74 63 58 54 55 57 57 57 56 58 58 60 59 58 61 62
86 85 83 86 86 85 83 84 84 89 89 92 91 93 91 86 85 84 82 75 72 70 68 62 62 65 66 65 64 59 59 61 61
90 84 83 83 88 90 86 88 85 92 93 94 95 96 97 96 93 93 90 84 80 76 76 73 71 70 68 64 56 52 53 54 56

GFSFLT1_prec_cthk_093.txt.gz
RH
50 48 44 41 37 28 17 15 17 17 17 17 18 21 22 21 21 21 19 19 18 19 21 21 21 22 22 23 23 23 23 23 23
56 46 40 39 36 20 15 16 17 17 18 18 20 21 21 21 22 21 20 19 19 21 22 22 22 23 24 25 24 24 24 24 24
63 46 40 35 25 18 16 17 18 18 19 20 21 22 21 21 22 21 20 21 22 23 23 22 23 25 27 27 27 26 26 26 25
66 50 34 29 20 19 18 19 19 19 20 21 21 21 22 21 23 22 20 21 22 22 21 22 25 28 30 29 29 30 30 29 28
62 58 34 25 26 24 20 21 21 21 22 22 22 23 23 22 23 23 21 21 21 20 20 24 26 29 30 29 29 32 33 32 31
69 63 42 28 26 22 21 22 22 23 23 23 23 23 24 23 23 23 22 21 20 19 22 25 27 29 29 29 32 34 34 34 33
73 63 48 30 23 23 24 23 24 25 25 25 24 24 23 23 24 24 23 22 21 21 24 26 28 28 29 31 36 36 35 34 36
71 61 48 35 25 25 25 24 24 26 27 27 25 25 25 22 23 24 23 22 22 23 26 29 30 30 32 36 39 37 35 40 42
70 57 51 40 32 26 26 26 26 26 28 28 27 26 26 24 23 25 26 25 25 26 29 31 31 30 31 35 39 38 45 49 46
63 51 53 42 35 27 27 28 27 28 29 29 28 28 27 25 26 28 27 27 28 29 30 30 30 30 32 35 45 47 55 56 53
73 56 48 41 33 29 27 29 30 31 31 29 30 29 29 31 31 30 31 31 32 32 31 31 32 34 36 37 40 50 53 55 54
67 53 43 37 29 28 29 32 33 34 33 33 32 31 32 37 36 34 35 34 34 34 35 36 38 40 40 39 40 46 56 52 50
78 54 36 31 30 32 34 35 34 36 36 35 36 36 39 43 43 40 40 41 39 39 40 42 42 41 39 38 42 47 49 52 52
57 56 39 39 37 37 37 36 37 38 38 38 39 39 46 51 49 45 47 47 44 43 43 42 39 39 40 41 42 44 46 47 51
52 50 44 43 41 40 40 41 42 42 43 43 45 46 52 61 54 51 52 50 50 47 46 41 39 39 41 42 42 43 45 48 53
49 47 47 43 43 44 45 48 49 48 49 50 50 55 53 70 59 58 59 57 56 53 48 39 39 40 41 42 44 46 49 54 60
58 53 52 49 51 53 56 55 55 55 56 56 63 67 66 69 66 65 65 65 62 56 48 46 46 47 49 50 52 53 55 60 62
85 71 59 58 58 61 63 61 64 65 65 73 77 76 74 77 80 77 74 71 72 59 57 61 62 60 55 56 56 57 60 65 62
93 91 89 68 68 70 72 76 76 72 75 85 84 82 79 84 88 84 89 87 80 69 72 72 70 66 66 66 64 63 64 62 57
88 88 96 92 88 84 82 80 82 90 90 92 94 90 86 92 99 95 92 92 90 83 79 77 76 72 67 66 60 59 56 56 55

GFSFLT1_prec_cthk_096.txt.gz
RH
50 47 48 49 40 43 29 19 17 17 17 18 19 19 20 20 20 20 18 17 17 18 20 20 20 21 22 23 22 22 22 22 22
57 52 51 47 37 37 26 19 18 17 17 19 20 20 21 21 20 20 19 18 19 20 21 20 21 23 24 25 24 23 24 23 23
68 63 52 45 38 32 22 18 17 18 18 21 20 21 21 21 20 20 19 19 21 21 20 20 22 25 26 26 26 26 26 25 26
71 70 57 41 34 28 21 18 18 18 19 22 22 20 21 21 22 20 20 20 21 20 19 21 24 26 28 26 26 28 29 28 28
75 74 66 39 29 24 21 19 20 19 20 22 23 22 21 22 22 21 20 20 20 19 19 22 24 26 27 26 27 30 31 30 29
78 75 64 47 32 29 21 21 21 22 22 22 23 23 22 21 22 22 21 20 20 19 20 22 25 26 26 27 31 31 30 30 31
78 74 65 55 41 32 23 23 23 23 24 23 23 23 23 22 22 22 21 21 19 19 21 23 26 26 27 30 33 31 30 33 38
79 77 75 61 49 30 26 25 24 24 25 26 25 25 24 22 21 23 23 21 21 21 23 26 27 26 27 30 33 34 35 41 42
81 79 78 64 48 38 28 27 27 26 26 27 27 26 25 24 23 22 25 24 23 24 26 27 27 25 27 30 33 39 43 46 46
90 83 81 62 50 45 37 30 27 27 27 28 28 28 27 25 24 26 28 28 27 27 28 28 27 27 28 31 36 42 45 50 51
100 97 84 66 52 53 48 36 28 28 29 29 29 29 28 26 28 29 31 32 31 31 31 30 30 30 32 34 35 39 47 53 52
93 90 79 59 53 55 55 40 31 30 31 31 30 30 29 29 30 32 33 35 36 34 33 34 36 37 38 37 38 41 50 53 50
90 87 81 75 68 60 55 38 33 34 34 33 33 33 32 30 33 35 37 40 41 37 36 37 39 40 39 37 38 41 44 47 47
70 89 88 68 60 54 46 38 36 37 37 36 37 36 36 36 36 38 41 46 51 44 39 40 40 39 38 39 41 40 43 47 45
62 65 80 81 53 52 43 38 39 38 39 40 39 41 40 41 42 43 49 60 56 48 45 43 43 39 39 41 41 42 43 46 49
83 60 63 93 76 51 42 42 42 41 44 45 45 46 47 46 46 53 49 67 61 54 52 49 45 40 42 44 46 48 50 51 53
82 71 55 59 66 57 52 48 46 49 52 51 53 54 53 55 57 56 59 68 68 61 58 56 52 49 49 53 54 55 53 52 63
84 76 65 65 59 51 51 51 54 51 53 56 62 67 66 63 63 66 71 76 74 77 73 64 57 58 59 64 65 62 60 61 63
94 84 73 62 55 53 55 55 59 60 65 72 79 76 72 73 73 78 79 81 82 84 83 78 68 68 69 71 68 66 64 64 63
96 93 93 86 72 71 72 68 68 69 74 80 81 88 92 90 92 86 82 83 86 96 90 89 79 78 75 74 73 68 65 60 59

GFSFLT1_prec_cthk_099.txt.gz
RH
46 48 52 52 48 47 39 31 18 15 15 16 19 19 19 18 18 18 17 17 17 18 19 19 19 21 22 22 21 21 21 21 21
53 53 59 56 47 43 33 29 19 16 16 17 19 20 20 20 19 18 17 17 18 19 19 19 20 22 24 24 23 23 22 22 22
52 63 66 61 47 41 33 29 19 17 17 18 19 20 21 20 19 19 18 18 20 20 19 20 22 24 25 24 24 24 24 24 25
56 65 69 66 51 37 32 28 20 18 18 19 20 20 21 21 19 19 19 19 20 19 19 20 22 24 25 24 23 25 26 26 25
62 68 70 70 52 35 29 27 21 19 19 20 21 21 21 22 22 20 20 20 20 19 19 21 22 23 23 23 25 26 26 26 27
66 73 72 73 57 38 28 25 21 20 21 20 21 21 22 21 22 21 20 19 20 19 19 21 22 24 24 25 27 27 26 27 32
70 72 76 74 56 46 31 26 22 22 22 22 21 22 23 22 22 22 21 20 20 19 20 22 24 24 25 28 30 30 28 35 37
76 79 81 75 59 56 45 28 24 24 23 24 24 23 23 23 23 23 22 21 21 21 21 24 27 26 26 29 31 34 36 41 41
84 84 85 75 64 60 51 37 27 26 25 24 25 25 25 25 24 23 23 22 23 22 23 26 28 27 26 27 32 38 40 44 45
88 87 88 79 79 60 59 46 40 29 27 27 27 27 27 26 25 24 25 24 24 25 26 27 28 26 27 29 32 36 41 47 50
85 92 92 86 81 71 57 51 50 37 30 29 30 29 29 28 27 25 26 27 27 28 29 28 26 28 29 32 33 36 41 51 51
82 85 95 93 96 70 62 57 55 53 41 32 32 32 32 30 29 29 30 30 30 31 29 33 30 33 36 35 35 39 43 48 54
74 87 95 98 93 83 64 63 58 56 48 37 34 34 34 33 31 31 32 34 34 35 35 38 37 36 37 37 36 37 39 44 48
71 82 85 88 85 83 74 67 61 58 51 42 39 38 36 36 34 34 35 37 39 39 41 41 41 39 37 35 36 39 40 42 46
80 76 74 83 84 81 80 78 69 59 52 47 43 41 39 39 38 39 38 41 43 46 47 54 52 45 39 37 38 40 42 46 51
80 82 85 79 84 81 80 76 71 63 56 56 49 42 42 41 41 42 43 44 47 51 55 64 68 54 45 40 41 44 46 50 56
81 84 87 81 85 90 82 66 68 57 55 52 48 51 47 44 44 48 50 53 52 57 64 66 67 65 56 47 45 50 54 58 59
91 87 90 89 86 82 80 75 69 63 58 52 57 58 56 54 57 61 64 57 60 67 73 71 73 74 68 62 59 60 60 61 65
95 96 95 95 91 79 66 81 71 64 55 59 63 63 63 64 65 65 67 68 72 79 77 81 83 82 77 73 72 68 67 67 70
92 97 97 98 89 84 74 77 74 63 63 65 62 63 64 69 68 70 76 87 81 85 83 85 85 85 88 87 80 73 73 71 72

GFSFLT1_prec_cthk_102.txt.gz
RH
45 44 46 51 58 50 46 40 29 17 16 16 17 17 16 17 17 16 16 16 16 16 17 18 19 21 22 22 21 21 20 20 20
50 50 52 55 56 48 40 35 28 19 16 18 18 18 18 18 18 17 16 17 17 17 17 18 19 21 23 23 22 22 22 22 22
49 56 56 59 60 50 40 32 28 21 17 18 18 19 19 18 18 18 17 18 18 18 17 18 20 21 23 22 22 23 24 24 22
53 58 62 64 63 53 45 31 29 24 18 19 19 19 20 19 18 18 18 18 18 18 17 18 21 22 22 21 24 24 25 24 24
57 58 65 69 64 57 52 33 29 26 20 19 20 19 20 22 21 20 19 19 19 18 18 19 20 21 22 23 25 26 25 24 28
55 62 66 68 67 56 54 42 29 24 21 21 21 20 21 21 21 21 21 20 20 19 19 20 21 21 22 24 27 27 25 30 33
59 63 71 73 74 63 53 50 35 25 21 21 22 22 22 21 22 22 21 20 20 20 20 21 22 22 22 25 28 29 28 35 37
67 70 73 77 76 67 55 50 43 31 23 21 22 23 23 23 22 22 23 22 20 19 20 22 23 24 22 25 27 30 33 39 40
75 77 82 80 81 82 60 52 45 40 28 23 23 24 25 25 24 23 23 23 21 20 21 23 24 24 23 24 26 32 37 40 43
82 85 85 89 89 79 68 58 51 43 41 28 25 25 26 26 26 25 24 25 25 24 24 25 26 25 24 25 27 31 35 40 46
75 79 86 90 89 86 80 63 60 52 45 44 33 27 27 28 28 27 26 27 28 27 27 28 28 26 26 27 30 31 36 45 51
71 69 74 86 92 92 90 73 65 55 50 49 46 37 30 30 30 29 27 28 30 30 30 31 30 29 31 33 35 39 41 42 46
66 64 62 74 85 89 99 86 70 64 58 55 51 47 42 34 32 31 30 31 32 33 34 33 33 36 36 39 40 39 33 35 44
67 70 66 73 79 90 94 93 84 75 66 63 56 54 50 42 36 34 32 32 33 35 37 37 39 38 39 44 45 42 40 37 39
72 72 72 79 78 77 87 94 85 81 77 71 61 57 56 51 41 38 37 35 35 38 40 41 43 43 42 48 48 47 47 43 44
75 77 79 85 81 78 86 92 90 89 81 77 67 62 61 57 45 42 42 41 40 43 45 46 51 50 56 55 54 52 56 53 51
74 77 77 82 81 84 82 85 88 87 85 82 76 72 63 61 55 50 50 46 44 50 52 56 55 58 62 61 60 56 57 58 61
78 78 83 83 88 91 96 93 91 90 87 80 76 75 67 60 51 49 52 48 56 53 55 58 63 65 66 67 74 68 62 66 68
78 78 82 82 94 95 96 95 91 91 82 76 73 70 67 61 57 57 57 61 64 65 67 72 73 75 72 79 81 77 71 74 76
77 82 88 94 96 96 95 95 92 92 90 78 77 80 73 65 65 65 69 73 73 75 72 70 73 80 80 86 87 85 83 86 82

GFSFLT1_prec_cthk_105.txt.gz
RH
47 44 50 54 59 61 52 42 32 25 17 15 16 16 16 16 16 15 15 15 15 16 16 17 19 20 21 21 21 20 20 20 20
59 50 55 57 64 60 49 41 31 27 20 17 17 17 17 17 17 16 16 16 17 17 17 18 19 21 21 21 22 22 21 22 21
56 57 60 57 61 61 54 42 31 27 24 17 18 18 18 17 17 17 17 18 18 18 18 18 20 21 21 21 22 23 23 22 22
57 58 63 67 67 64 56 44 34 28 26 20 18 18 18 18 18 17 17 18 18 18 18 19 20 20 20 21 23 24 23 22 24
54 59 65 74 78 68 58 50 41 30 27 23 19 18 19 19 18 18 18 18 18 18 17 19 21 21 20 22 23 23 22 25 27
53 54 60 68 76 72 61 54 48 38 29 26 22 19 19 20 20 20 20 19 19 18 18 19 21 22 21 22 24 24 23 29 31
57 58 58 62 70 74 67 60 49 48 37 28 24 21 19 19 20 21 21 20 20 19 19 19 21 22 22 23 25 26 26 34 35
55 60 66 65 70 72 73 61 54 49 45 35 27 25 23 21 20 21 22 22 21 20 20 20 22 24 23 23 25 28 30 35 38
61 61 66 70 75 76 84 66 54 51 48 43 32 28 27 24 23 22 21 22 22 21 21 21 23 24 24 24 25 28 34 36 41
75 76 80 83 85 86 87 78 65 58 51 46 42 33 29 28 26 25 23 23 23 24 23 23 24 26 25 25 26 30 32 35 41
81 81 84 88 94 96 97 93 78 63 58 50 46 44 38 31 29 28 27 25 25 25 25 25 26 28 27 27 30 34 34 42 48
78 80 79 79 82 91 97 97 89 79 69 61 54 51 51 47 36 33 30 28 26 28 28 28 29 28 28 30 35 35 44 50 53
78 75 69 68 72 74 79 85 95 93 79 69 64 54 52 52 50 41 34 31 29 30 31 32 32 31 32 36 39 39 38 36 39
79 78 72 68 66 65 68 70 84 94 93 79 71 62 55 56 56 53 45 37 33 33 34 35 36 36 35 36 37 37 34 36 41
68 71 69 68 67 67 68 72 76 88 92 90 81 73 66 62 62 62 53 49 41 34 35 38 38 40 41 41 40 42 43 45 48
68 66 68 67 68 70 74 75 79 82 93 91 84 82 80 72 66 64 60 56 50 45 39 42 44 45 47 47 50 52 53 49 49
71 70 69 69 67 74 77 72 79 80 83 87 84 87 77 74 75 67 63 61 60 50 46 46 50 51 55 59 60 62 61 54 55
69 69 67 69 68 75 74 74 77 81 87 93 94 90 82 83 73 66 64 62 60 60 58 60 62 66 70 69 68 69 71 66 63
63 65 68 68 74 76 78 83 80 86 88 92 92 92 92 91 80 70 66 68 64 63 63 63 66 69 73 73 74 81 82 79 72
63 68 72 75 75 79 77 82 86 89 94 95 96 93 91 91 88 78 71 65 63 62 65 69 74 80 79 83 81 85 87 81 80

GFSFLT1_prec_cthk_108.txt.gz
RH
49 45 43 52 68 73 63 49 35 28 25 16 14 15 15 16 17 16 15 20 15 15 16 17 19 20 20 20 20 19 19 20 20
60 64 57 62 67 73 65 53 37 29 27 21 16 15 16 17 17 18 16 16 16 16 17 17 19 20 20 20 21 21 21 20 19
59 64 63 67 67 76 66 55 42 32 28 26 19 17 16 17 17 18 21 17 18 18 17 17 19 20 21 20 21 22 22 21 21
54 58 61 65 67 76 71 57 47 39 31 29 24 19 18 17 16 17 21 18 18 18 18 19 20 20 20 21 22 22 22 22 23
49 57 60 64 71 74 81 63 48 45 35 31 28 23 20 21 17 16 19 19 19 18 18 19 20 21 21 21 23 23 22 26 28
50 53 57 63 75 82 85 74 54 47 45 40 30 25 25 25 22 21 17 17 18 19 19 19 20 21 22 22 24 25 23 29 31
61 62 59 60 67 76 79 77 65 54 47 46 40 27 28 28 26 24 20 19 18 19 19 20 21 22 22 23 25 26 26 33 35
64 62 64 65 68 70 74 76 66 62 59 49 47 44 32 29 26 23 23 21 21 20 19 19 20 22 22 22 24 26 29 35 37
72 68 62 66 74 76 81 76 74 68 59 54 51 49 42 33 30 26 23 23 23 22 21 21 21 23 24 22 23 26 30 34 38
79 74 73 74 74 76 82 87 82 78 59 57 55 52 48 46 40 31 26 24 24 25 24 23 23 24 25 24 24 25 28 31 36
82 81 80 77 85 86 88 89 91 89 75 64 57 56 51 46 46 42 33 27 25 25 27 27 29 28 29 27 27 28 31 33 41
84 83 84 81 79 87 94 95 97 94 90 76 67 62 58 53 49 50 48 38 29 26 27 29 28 30 31 33 28 35 39 45 49
85 81 79 77 80 79 83 84 88 94 92 90 78 66 69 58 54 54 50 50 47 35 29 30 31 31 32 31 32 36 44 45 36
90 84 80 80 79 77 76 79 80 79 80 85 85 80 75 67 65 59 58 55 53 47 40 33 33 35 35 34 35 37 40 36 33
88 82 78 76 76 78 78 76 77 78 75 71 87 84 81 82 76 63 62 62 61 56 53 49 41 38 39 38 39 40 40 40 37
85 84 80 73 73 76 75 74 75 75 75 77 80 80 78 80 77 79 66 65 66 66 60 55 50 49 45 44 45 45 48 49 47
84 78 78 80 74 72 70 72 73 73 72 73 76 79 79 87 80 78 74 72 72 72 69 64 59 56 56 52 53 54 54 57 58
78 73 75 74 76 68 74 78 74 77 73 72 74 76 76 80 80 74 75 75 74 71 73 67 65 62 61 62 61 61 65 65 74
71 73 72 71 74 74 73 79 76 76 76 76 72 75 77 81 82 82 84 78 76 71 68 68 68 64 64 64 66 75 81 80 82
65 64 65 68 70 68 72 70 74 76 77 78 80 78 80 83 87 88 89 85 79 76 71 69 70 71 70 72 78 85 84 90 89

GFSFLT1_prec_cthk_111.txt.gz
RH
46 45 41 41 58 69 67 56 41 30 26 22 16 16 15 16 21 22 18 21 15 15 15 17 19 20 20 20 20 19 20 20 19
53 57 54 56 66 75 74 62 45 36 29 25 19 16 17 20 22 21 21 16 16 16 17 17 19 20 20 20 20 21 21 20 19
55 59 61 62 75 78 86 70 52 41 35 28 25 19 18 21 23 23 23 17 16 17 17 17 19 20 20 20 21 22 21 20 21
57 58 62 62 65 70 80 81 60 44 43 34 29 23 19 22 24 23 24 18 17 17 17 17 19 19 20 20 21 22 21 22 23
51 54 60 62 64 69 74 82 70 54 44 43 32 27 23 20 23 23 23 19 18 17 17 17 19 20 20 20 22 22 21 24 26
43 45 51 55 61 69 76 83 79 64 52 46 44 38 27 26 26 24 22 19 18 18 18 19 19 20 21 21 22 23 22 25 28
57 56 49 50 57 65 76 84 86 74 61 53 47 43 41 36 28 27 23 19 19 19 20 20 20 21 22 22 23 25 24 28 31
72 66 62 61 60 64 73 80 82 75 66 61 55 48 43 50 40 30 25 22 21 20 20 20 21 22 23 23 23 24 26 28 34
77 79 75 66 66 66 71 76 80 81 66 61 60 57 53 50 50 42 30 25 23 22 20 19 20 21 23 24 23 24 26 30 34
82 81 83 78 70 71 73 76 82 90 85 74 71 60 59 55 54 47 43 35 27 25 24 23 21 20 22 24 24 23 24 28 32
86 88 87 84 83 80 81 80 79 86 88 89 77 66 64 61 55 53 47 44 39 30 27 25 28 26 24 25 27 25 25 29 30
84 90 92 92 90 90 92 90 89 88 92 92 86 79 75 68 61 56 52 49 48 46 38 28 27 28 35 33 38 36 30 39 43
80 90 93 93 92 90 90 87 90 92 94 94 96 90 78 73 69 65 62 54 52 51 49 47 36 31 29 29 31 33 32 36 49
71 80 93 93 90 89 87 86 84 85 87 86 87 85 79 77 73 65 67 65 60 59 55 53 50 39 36 35 32 31 38 46 47
69 74 89 95 93 88 86 84 82 83 87 86 84 82 80 78 76 73 68 69 75 67 58 57 56 51 48 46 42 39 38 43 42
63 65 73 87 85 80 80 80 87 85 86 86 87 84 81 77 76 71 70 70 78 74 65 63 60 59 56 53 53 47 47 49 50
64 64 62 80 85 81 81 81 83 81 83 82 85 80 74 70 69 74 74 71 71 72 69 68 64 66 65 58 58 56 56 56 60
71 68 63 71 85 83 82 79 83 83 84 80 85 82 73 69 66 66 68 71 74 79 76 70 69 67 68 67 66 64 64 62 68
71 74 75 72 73 79 82 82 78 83 88 91 91 84 76 72 68 71 69 70 70 74 75 68 68 68 69 68 67 66 71 76 79
78 76 76 76 73 75 79 82 79 81 88 89 88 82 76 75 78 76 74 74 76 78 83 82 79 70 71 70 66 68 71 75 82

GFSFLT1_prec_cthk_114.txt.gz
RH
45 42 41 37 47 61 66 58 49 36 31 26 20 16 16 18 22 21 21 17 14 14 14 16 18 19 19 19 19 19 19 19 18
56 52 48 46 53 70 78 68 53 42 38 30 26 19 16 19 20 21 19 19 16 15 15 16 18 19 20 20 20 20 20 19 18
59 62 60 55 59 75 81 80 69 49 42 39 29 25 19 18 21 22 20 20 17 17 17 16 17 18 19 20 21 21 20 19 20
50 57 62 65 61 69 77 83 80 63 49 43 37 30 25 21 21 20 19 18 17 18 18 17 17 18 19 19 20 21 21 21 22
42 46 51 59 63 64 67 74 81 69 54 53 44 40 31 26 25 23 21 19 17 17 17 18 18 19 19 20 20 21 21 22 25
49 43 44 48 55 59 64 71 79 77 64 59 55 48 41 35 29 25 24 22 17 16 16 17 18 19 20 21 21 22 22 23 27
53 53 48 46 48 56 61 69 75 79 74 63 61 55 50 44 42 37 29 26 21 18 17 17 17 18 19 20 21 22 23 23 28
66 63 64 59 53 53 57 65 72 76 78 70 62 59 57 54 53 43 39 31 24 23 21 19 18 18 18 20 20 21 22 23 28
67 76 74 69 65 66 65 64 69 75 78 74 65 58 56 56 57 52 45 42 33 27 24 22 20 19 20 21 22 21 21 22 26
69 74 78 81 78 72 72 74 71 77 79 78 75 72 64 60 59 56 54 47 42 39 33 27 24 22 21 21 22 23 21 22 26
66 73 73 79 84 82 77 79 80 82 84 87 85 83 79 75 69 61 59 55 48 45 41 37 31 28 26 22 22 24 23 23 26
61 61 68 82 79 85 87 90 91 90 89 87 87 87 85 79 79 73 72 65 56 52 47 47 44 40 34 34 34 35 34 28 30
59 57 67 67 81 88 92 96 97 98 98 96 96 93 92 88 81 78 78 73 68 61 55 52 51 49 48 47 40 35 40 45 41
60 58 57 67 72 84 92 95 95 94 95 95 94 95 92 91 88 82 76 70 73 68 61 63 60 59 53 52 48 41 37 36 37
72 77 76 67 63 79 77 92 95 92 91 92 92 93 90 89 86 81 76 72 69 66 66 62 64 68 59 56 55 50 48 46 45
75 73 73 67 69 68 74 81 89 89 91 92 92 92 91 91 90 88 83 75 74 65 65 63 64 66 62 61 61 56 51 53 54
71 63 60 66 66 74 66 64 84 85 88 93 93 90 87 89 88 85 81 79 72 67 65 64 66 61 61 62 64 63 62 62 57
68 80 76 61 60 59 65 64 67 77 85 91 92 90 84 86 87 84 78 70 68 69 71 72 69 70 71 69 70 68 68 63 63
88 97 81 66 66 62 65 69 69 85 89 90 89 89 88 91 91 88 77 71 67 68 69 71 72 68 67 72 71 67 70 69 69
84 82 74 77 69 68 70 79 81 82 89 92 92 91 94 92 94 84 76 73 67 75 71 73 73 72 69 69 69 67 71 70 69

GFSFLT1_prec_cthk_117.txt.gz
RH
48 46 41 35 39 54 59 54 47 40 36 33 25 20 17 17 20 20 19 17 14 14 14 15 17 19 19 19 19 19 19 19 18
54 55 51 48 43 55 70 66 57 45 42 38 34 25 21 18 17 17 16 16 15 15 16 16 17 19 20 20 20 20 19 18 18
48 55 58 60 53 56 72 77 70 57 49 46 39 32 25 22 21 19 17 16 15 15 16 16 17 18 19 19 20 20 19 19 19
46 48 53 59 62 60 71 75 78 71 55 53 51 41 31 27 24 21 20 19 17 16 16 16 16 17 17 18 19 20 19 20 21
48 45 44 48 56 60 61 67 73 75 62 51 52 52 47 37 29 25 24 22 20 17 16 16 16 17 18 18 19 19 20 20 22
56 54 49 46 45 50 56 59 63 72 69 56 52 53 51 47 42 33 28 25 23 20 17 16 17 17 18 19 20 20 21 21 23
57 56 60 57 49 47 51 56 60 67 70 66 55 54 55 54 51 45 37 33 28 23 21 19 17 17 19 19 20 21 22 22 25
60 59 58 59 62 55 53 55 56 64 68 70 64 55 56 58 56 54 50 41 36 29 26 23 21 20 18 19 20 20 21 22 24
59 61 61 65 67 70 66 61 61 65 71 71 71 65 56 54 56 56 55 49 48 43 34 28 25 23 20 19 19 20 20 21 22
56 59 58 57 70 76 71 69 68 70 75 79 76 74 67 62 57 61 61 58 52 49 43 40 35 29 26 23 21 21 21 21 21
64 68 59 60 65 75 78 77 74 76 78 80 81 82 81 75 69 67 71 69 62 55 49 45 43 40 35 30 26 25 24 22 21
51 59 66 67 67 65 68 78 84 82 84 85 89 88 86 85 84 79 73 75 69 65 60 55 51 46 45 44 41 40 37 36 30
53 61 70 71 71 60 62 72 82 88 94 94 94 94 92 91 88 88 85 81 78 74 72 66 63 58 54 54 52 50 49 47 52
57 61 64 69 68 61 64 70 66 81 93 97 99 99 99 98 98 94 88 86 86 83 74 71 69 63 59 52 60 57 55 51 47
44 60 65 68 69 66 63 64 73 73 86 92 95 96 96 98 96 92 91 87 82 78 75 72 68 63 61 55 61 60 58 56 53
40 53 64 70 74 79 86 88 75 71 75 90 88 93 91 92 93 92 91 88 83 80 76 72 77 66 61 59 58 62 58 61 58
47 49 56 64 78 85 90 89 76 68 69 74 88 88 91 87 90 89 87 86 88 85 84 80 74 69 63 62 59 61 54 59 65
51 62 66 63 67 76 84 83 74 75 70 70 73 87 90 85 85 87 87 87 85 82 78 80 74 71 65 68 70 66 68 62 66
47 62 85 91 86 75 80 78 72 76 77 75 71 75 82 86 87 90 89 89 88 86 82 76 72 69 69 69 73 72 72 66 66
56 61 86 97 95 96 94 93 84 72 70 75 74 78 94 97 97 98 98 94 91 90 83 75 67 70 71 69 72 76 74 70 71

GFSFLT1_prec_cthk_123.txt.gz
RH
48 49 47 42 42 43 47 52 53 42 40 41 39 36 28 22 19 17 20 18 15 13 12 12 13 15 17 17 17 18 18 17 17
46 47 52 52 50 48 51 59 61 50 46 45 45 44 39 28 23 20 17 16 15 13 12 13 13 14 16 18 18 18 18 17 17
46 47 47 52 54 53 50 56 68 62 53 48 50 50 46 40 31 25 22 18 17 15 14 14 14 14 15 16 17 18 18 17 17
49 47 45 46 50 55 56 55 62 70 67 54 50 51 52 48 42 36 30 25 22 18 17 16 15 14 14 15 16 17 18 18 18
52 50 50 49 47 49 52 56 61 67 75 76 58 53 51 49 46 44 40 34 28 24 21 19 17 15 14 15 16 16 17 17 19
52 52 54 55 54 52 50 52 57 64 72 75 71 55 49 48 48 47 46 42 36 33 29 23 20 18 17 16 16 17 17 18 19
52 51 52 54 57 58 55 55 54 55 59 65 67 66 56 49 49 48 49 48 45 42 36 32 28 24 21 19 18 17 18 19 20
47 52 55 52 54 57 61 60 57 56 55 55 61 69 69 57 50 52 51 51 51 49 46 40 36 33 28 25 22 20 19 19 19
37 43 48 52 54 54 58 62 63 61 60 59 58 62 72 72 58 53 54 54 54 53 52 46 43 39 37 31 27 25 23 21 20
29 33 38 49 49 50 52 60 65 66 68 68 65 64 67 74 74 64 60 58 58 57 60 53 50 48 43 40 36 31 27 25 23
21 27 32 36 45 57 53 56 65 69 68 67 70 69 71 74 80 81 73 68 65 65 62 65 59 57 54 48 44 41 35 30 28
16 17 23 30 40 52 58 60 65 67 70 71 77 77 75 75 78 84 88 84 78 72 71 72 71 69 63 60 53 48 44 42 36
19 19 18 22 32 46 55 66 69 71 75 76 79 85 83 80 79 84 89 92 86 83 82 80 78 80 76 68 67 64 56 50 49
24 23 22 23 26 34 49 62 78 72 78 81 83 85 85 84 81 82 91 93 96 93 91 92 88 85 82 82 76 72 69 64 60
26 25 26 29 33 31 37 49 69 78 80 84 89 89 85 79 76 77 85 81 92 97 96 97 96 95 92 88 87 81 76 71 66
27 29 29 27 29 37 36 42 55 69 78 90 90 90 92 85 78 75 74 71 87 94 98 99 98 96 92 94 94 83 80 80 74
33 33 34 38 32 29 41 43 49 56 69 81 92 91 87 83 79 67 67 67 77 84 91 97 97 98 96 95 93 91 87 86 84
48 51 51 45 48 38 38 49 52 55 60 75 88 92 88 86 80 73 70 70 71 76 80 91 94 95 96 97 96 94 93 94 91
62 64 72 67 55 53 45 47 53 54 58 68 74 85 85 86 84 83 80 79 76 74 82 87 97 99 97 97 97 96 96 97 94
70 70 85 85 74 61 53 46 52 51 64 68 86 82 80 93 94 92 86 85 85 86 87 85 91 95 96 98 96 95 94 94 93